Time,TemperatureF,DewpointF,PressureIn,WindDirection,WindDirectionDegrees,WindSpeedMPH,WindSpeedGustMPH,Humidity,HourlyPrecipIn,Conditions,Clouds,dailyrainin,SoftwareType,DateUTC
2013-01-04 00:00:00,32.4,18.5,30.14,SW,226,10.0,10.0,56,0.00,,---,0.00,VWS V14.01,2013-01-04 05:00:00,
2013-01-04 00:01:00,32.4,18.5,30.14,WNW,283,2.0,6.0,56,0.00,,---,0.00,VWS V14.01,2013-01-04 05:01:00,
2013-01-04 00:03:00,32.4,18.0,30.14,West,265,13.0,13.0,55,0.00,,---,0.00,VWS V14.01,2013-01-04 05:03:00,
2013-01-04 00:05:00,32.4,18.5,30.14,SW,224,3.0,13.0,56,0.00,,---,0.00,VWS V14.01,2013-01-04 05:05:00,
2013-01-04 00:06:00,32.4,18.5,30.14,WSW,257,5.0,6.0,56,0.00,,---,0.00,VWS V14.01,2013-01-04 05:06:00,
2013-01-04 00:08:00,32.4,18.5,30.14,West,273,4.0,4.0,56,0.00,,---,0.00,VWS V14.01,2013-01-04 05:08:00,
2013-01-04 00:10:00,32.4,18.5,30.14,NNW,329,3.0,10.0,56,0.00,,---,0.00,VWS V14.01,2013-01-04 05:10:00,
2013-01-04 00:11:00,32.4,18.5,30.14,West,276,9.0,9.0,56,0.00,,---,0.00,VWS V14.01,2013-01-04 05:11:00,
2013-01-04 00:13:00,32.4,18.5,30.14,WSW,250,3.0,8.0,56,0.00,,---,0.00,VWS V14.01,2013-01-04 05:13:00,
2013-01-04 00:15:00,32.4,18.5,30.14,West,273,6.0,16.0,56,0.00,,---,0.00,VWS V14.01,2013-01-04 05:15:00,
2013-01-04 00:16:00,32.4,18.5,30.14,West,268,2.0,6.0,56,0.00,,---,0.00,VWS V14.01,2013-01-04 05:16:00,
2013-01-04 00:18:00,32.4,18.5,30.13,West,281,1.0,4.0,56,0.00,,---,0.00,VWS V14.01,2013-01-04 05:18:00,
2013-01-04 00:20:00,32.4,18.5,30.13,West,276,0.0,4.0,56,0.00,,---,0.00,VWS V14.01,2013-01-04 05:20:00,
2013-01-04 00:21:00,32.4,18.5,30.13,West,276,0.0,0.0,56,0.00,,---,0.00,VWS V14.01,2013-01-04 05:21:00,
2013-01-04 00:23:00,32.2,18.3,30.13,WNW,285,5.0,7.0,56,0.00,,---,0.00,VWS V14.01,2013-01-04 05:23:00,
2013-01-04 00:26:00,32.2,18.3,30.13,NNW,344,2.0,3.0,56,0.00,,---,0.00,VWS V14.01,2013-01-04 05:26:00,
2013-01-04 00:27:00,32.2,18.3,30.13,NW,306,0.0,4.0,56,0.00,,---,0.00,VWS V14.01,2013-01-04 05:27:00,
2013-01-04 00:28:00,32.2,18.3,30.13,WSW,253,4.0,10.0,56,0.00,,---,0.00,VWS V14.01,2013-01-04 05:28:00,
2013-01-04 00:31:00,32.2,18.3,30.13,North,5,4.0,4.0,56,0.00,,---,0.00,VWS V14.01,2013-01-04 05:31:00,
2013-01-04 00:32:00,32.2,18.3,30.13,SW,222,15.0,16.0,56,0.00,,---,0.00,VWS V14.01,2013-01-04 05:32:00,
2013-01-04 00:33:00,32.4,18.5,30.13,West,270,5.0,13.0,56,0.00,,---,0.00,VWS V14.01,2013-01-04 05:33:00,
2013-01-04 00:36:00,32.4,18.5,30.13,NW,321,3.0,5.0,56,0.00,,---,0.00,VWS V14.01,2013-01-04 05:36:00,
2013-01-04 00:37:00,32.4,18.0,30.13,West,260,11.0,14.0,55,0.00,,---,0.00,VWS V14.01,2013-01-04 05:37:00,
2013-01-04 00:38:00,32.5,18.1,30.13,SW,233,5.0,6.0,55,0.00,,---,0.00,VWS V14.01,2013-01-04 05:38:00,
2013-01-04 00:41:00,32.5,18.6,30.13,West,269,0.0,0.0,56,0.00,,---,0.00,VWS V14.01,2013-01-04 05:41:00,
2013-01-04 00:42:00,32.5,18.6,30.13,West,269,0.0,0.0,56,0.00,,---,0.00,VWS V14.01,2013-01-04 05:42:00,
2013-01-04 00:43:00,32.5,18.6,30.13,West,269,0.0,0.0,56,0.00,,---,0.00,VWS V14.01,2013-01-04 05:43:00,
2013-01-04 00:46:00,32.5,18.6,30.13,West,269,1.0,2.0,56,0.00,,---,0.00,VWS V14.01,2013-01-04 05:46:00,
2013-01-04 00:47:00,32.5,18.1,30.15,ENE,68,3.0,4.0,55,0.00,,---,0.00,VWS V14.01,2013-01-04 05:47:00,
2013-01-04 00:48:00,32.7,18.3,30.15,SW,226,6.0,11.0,55,0.00,,---,0.00,VWS V14.01,2013-01-04 05:48:00,
2013-01-04 00:51:00,32.7,18.8,30.15,WNW,292,0.0,6.0,56,0.00,,---,0.00,VWS V14.01,2013-01-04 05:51:00,
2013-01-04 00:52:00,32.7,18.8,30.15,WSW,255,11.0,17.0,56,0.00,,---,0.00,VWS V14.01,2013-01-04 05:52:00,
2013-01-04 00:53:00,32.7,18.8,30.15,South,188,8.0,17.0,56,0.00,,---,0.00,VWS V14.01,2013-01-04 05:53:00,
2013-01-04 00:56:00,32.7,18.3,30.15,South,186,2.0,5.0,55,0.00,,---,0.00,VWS V14.01,2013-01-04 05:56:00,
2013-01-04 00:57:00,32.7,18.3,30.15,SW,234,11.0,13.0,55,0.00,,---,0.00,VWS V14.01,2013-01-04 05:57:00,
2013-01-04 00:58:00,32.7,18.3,30.15,WSW,246,5.0,11.0,55,0.00,,---,0.00,VWS V14.01,2013-01-04 05:58:00,
2013-01-04 01:01:00,32.7,18.3,30.15,WSW,246,12.0,12.0,55,0.00,,---,0.00,VWS V14.01,2013-01-04 06:01:00,
2013-01-04 01:02:00,32.7,18.3,30.13,SW,228,8.0,10.0,55,0.00,,---,0.00,VWS V14.01,2013-01-04 06:02:00,
2013-01-04 01:03:00,32.7,18.3,30.13,SW,236,8.0,14.0,55,0.00,,---,0.00,VWS V14.01,2013-01-04 06:03:00,
2013-01-04 01:06:00,32.7,18.3,30.13,SW,224,6.0,6.0,55,0.00,,---,0.00,VWS V14.01,2013-01-04 06:06:00,
2013-01-04 01:07:00,32.7,18.3,30.13,West,276,6.0,15.0,55,0.00,,---,0.00,VWS V14.01,2013-01-04 06:07:00,
2013-01-04 01:08:00,32.7,18.3,30.13,West,270,10.0,16.0,55,0.00,,---,0.00,VWS V14.01,2013-01-04 06:08:00,
2013-01-04 01:11:00,32.7,18.3,30.13,WNW,290,16.0,16.0,55,0.00,,---,0.00,VWS V14.01,2013-01-04 06:11:00,
2013-01-04 01:12:00,32.7,18.3,30.13,West,263,4.0,13.0,55,0.00,,---,0.00,VWS V14.01,2013-01-04 06:12:00,
2013-01-04 01:13:00,32.7,18.3,30.13,SW,234,2.0,10.0,55,0.00,,---,0.00,VWS V14.01,2013-01-04 06:13:00,
2013-01-04 01:16:00,32.7,18.3,30.13,WNW,296,12.0,18.0,55,0.00,,---,0.00,VWS V14.01,2013-01-04 06:16:00,
2013-01-04 01:17:00,32.8,18.4,30.13,North,5,1.0,10.0,55,0.00,,---,0.00,VWS V14.01,2013-01-04 06:17:00,
2013-01-04 01:19:00,32.8,18.4,30.13,NW,304,4.0,11.0,55,0.00,,---,0.00,VWS V14.01,2013-01-04 06:19:00,
2013-01-04 01:21:00,32.8,18.4,30.13,WNW,290,5.0,16.0,55,0.00,,---,0.00,VWS V14.01,2013-01-04 06:21:00,
2013-01-04 01:22:00,32.8,18.4,30.13,SW,224,3.0,12.0,55,0.00,,---,0.00,VWS V14.01,2013-01-04 06:22:00,
2013-01-04 01:24:00,32.7,18.3,30.13,West,262,9.0,22.0,55,0.00,,---,0.00,VWS V14.01,2013-01-04 06:24:00,
2013-01-04 01:26:00,32.7,18.3,30.13,NW,307,12.0,18.0,55,0.00,,---,0.00,VWS V14.01,2013-01-04 06:26:00,
2013-01-04 01:27:00,32.7,18.3,30.13,SW,225,6.0,9.0,55,0.00,,---,0.00,VWS V14.01,2013-01-04 06:27:00,
2013-01-04 01:29:00,32.7,18.3,30.13,WNW,291,4.0,5.0,55,0.00,,---,0.00,VWS V14.01,2013-01-04 06:29:00,
2013-01-04 01:31:00,32.8,18.4,30.13,WSW,244,6.0,10.0,55,0.00,,---,0.00,VWS V14.01,2013-01-04 06:31:00,
2013-01-04 01:32:00,32.8,18.4,30.14,WNW,282,6.0,7.0,55,0.00,,---,0.00,VWS V14.01,2013-01-04 06:32:00,
2013-01-04 01:34:00,32.8,18.4,30.14,WSW,242,2.0,5.0,55,0.00,,---,0.00,VWS V14.01,2013-01-04 06:34:00,
2013-01-04 01:36:00,32.8,18.4,30.14,SSW,202,3.0,10.0,55,0.00,,---,0.00,VWS V14.01,2013-01-04 06:36:00,
2013-01-04 01:37:00,32.8,18.4,30.14,SSW,202,4.0,4.0,55,0.00,,---,0.00,VWS V14.01,2013-01-04 06:37:00,
2013-01-04 01:39:00,32.8,18.4,30.14,SW,229,9.0,9.0,55,0.00,,---,0.00,VWS V14.01,2013-01-04 06:39:00,
2013-01-04 01:41:00,32.8,18.4,30.14,South,175,16.0,16.0,55,0.00,,---,0.00,VWS V14.01,2013-01-04 06:41:00,
2013-01-04 01:42:00,32.8,18.4,30.14,West,259,5.0,14.0,55,0.00,,---,0.00,VWS V14.01,2013-01-04 06:42:00,
2013-01-04 01:44:00,32.8,18.4,30.14,North,360,10.0,22.0,55,0.00,,---,0.00,VWS V14.01,2013-01-04 06:44:00,
2013-01-04 01:46:00,32.8,18.4,30.14,West,279,5.0,9.0,55,0.00,,---,0.00,VWS V14.01,2013-01-04 06:46:00,
2013-01-04 01:47:00,32.8,18.4,30.14,SW,229,2.0,13.0,55,0.00,,---,0.00,VWS V14.01,2013-01-04 06:47:00,
2013-01-04 01:48:00,32.8,18.4,30.14,West,265,11.0,11.0,55,0.00,,---,0.00,VWS V14.01,2013-01-04 06:48:00,
2013-01-04 01:49:00,32.8,18.4,30.14,West,267,7.0,7.0,55,0.00,,---,0.00,VWS V14.01,2013-01-04 06:49:00,
2013-01-04 01:51:00,32.8,18.4,30.14,SW,233,6.0,7.0,55,0.00,,---,0.00,VWS V14.01,2013-01-04 06:51:00,
2013-01-04 01:52:00,32.8,18.4,30.14,WSW,248,0.0,2.0,55,0.00,,---,0.00,VWS V14.01,2013-01-04 06:52:00,
2013-01-04 01:53:00,32.8,18.4,30.14,NNW,334,12.0,13.0,55,0.00,,---,0.00,VWS V14.01,2013-01-04 06:53:00,
2013-01-04 01:54:00,32.8,18.4,30.14,WSW,252,15.0,16.0,55,0.00,,---,0.00,VWS V14.01,2013-01-04 06:54:00,
2013-01-04 01:56:00,32.8,18.4,30.14,West,281,11.0,14.0,55,0.00,,---,0.00,VWS V14.01,2013-01-04 06:56:00,
2013-01-04 01:57:00,32.8,18.4,30.14,NW,316,2.0,3.0,55,0.00,,---,0.00,VWS V14.01,2013-01-04 06:57:00,
2013-01-04 01:58:00,32.7,18.3,30.14,SW,221,4.0,13.0,55,0.00,,---,0.00,VWS V14.01,2013-01-04 06:58:00,
2013-01-04 01:59:00,32.7,18.3,30.14,WSW,242,4.0,12.0,55,0.00,,---,0.00,VWS V14.01,2013-01-04 06:59:00,
2013-01-04 02:01:00,32.7,18.3,30.14,WSW,254,4.0,8.0,55,0.00,,---,0.00,VWS V14.01,2013-01-04 07:01:00,
2013-01-04 02:02:00,32.7,18.3,30.14,SW,224,5.0,12.0,55,0.00,,---,0.00,VWS V14.01,2013-01-04 07:02:00,
2013-01-04 02:03:00,32.7,18.3,30.14,SW,229,5.0,5.0,55,0.00,,---,0.00,VWS V14.01,2013-01-04 07:03:00,
2013-01-04 02:04:00,32.7,18.3,30.14,WNW,294,2.0,5.0,55,0.00,,---,0.00,VWS V14.01,2013-01-04 07:04:00,
2013-01-04 02:06:00,32.7,18.3,30.14,South,171,8.0,12.0,55,0.00,,---,0.00,VWS V14.01,2013-01-04 07:06:00,
2013-01-04 02:07:00,32.7,18.8,30.14,SW,228,9.0,15.0,56,0.00,,---,0.00,VWS V14.01,2013-01-04 07:07:00,
2013-01-04 02:08:00,32.5,18.6,30.14,WSW,258,10.0,11.0,56,0.00,,---,0.00,VWS V14.01,2013-01-04 07:08:00,
2013-01-04 02:09:00,32.5,18.6,30.14,WNW,288,3.0,6.0,56,0.00,,---,0.00,VWS V14.01,2013-01-04 07:09:00,
2013-01-04 02:11:00,32.5,18.6,30.14,West,281,12.0,12.0,56,0.00,,---,0.00,VWS V14.01,2013-01-04 07:11:00,
2013-01-04 02:12:00,32.5,18.1,30.14,West,270,6.0,10.0,55,0.00,,---,0.00,VWS V14.01,2013-01-04 07:12:00,
2013-01-04 02:13:00,32.5,18.1,30.14,West,263,4.0,6.0,55,0.00,,---,0.00,VWS V14.01,2013-01-04 07:13:00,
2013-01-04 02:14:00,32.5,18.1,30.14,WSW,245,10.0,23.0,55,0.00,,---,0.00,VWS V14.01,2013-01-04 07:14:00,
2013-01-04 02:16:00,32.5,18.1,30.14,NW,317,2.0,5.0,55,0.00,,---,0.00,VWS V14.01,2013-01-04 07:16:00,
2013-01-04 02:17:00,32.5,18.1,30.14,West,271,8.0,8.0,55,0.00,,---,0.00,VWS V14.01,2013-01-04 07:17:00,
2013-01-04 02:18:00,32.5,18.1,30.14,West,275,3.0,3.0,55,0.00,,---,0.00,VWS V14.01,2013-01-04 07:18:00,
2013-01-04 02:19:00,32.4,18.0,30.14,WSW,248,3.0,5.0,55,0.00,,---,0.00,VWS V14.01,2013-01-04 07:19:00,
2013-01-04 02:21:00,32.4,18.5,30.14,WSW,254,10.0,11.0,56,0.00,,---,0.00,VWS V14.01,2013-01-04 07:21:00,
2013-01-04 02:22:00,32.4,18.5,30.14,SW,233,5.0,5.0,56,0.00,,---,0.00,VWS V14.01,2013-01-04 07:22:00,
2013-01-04 02:23:00,32.4,18.5,30.14,WNW,283,3.0,10.0,56,0.00,,---,0.00,VWS V14.01,2013-01-04 07:23:00,
2013-01-04 02:24:00,32.4,18.5,30.14,WSW,241,9.0,11.0,56,0.00,,---,0.00,VWS V14.01,2013-01-04 07:24:00,
2013-01-04 02:26:00,32.4,18.5,30.14,WSW,245,4.0,10.0,56,0.00,,---,0.00,VWS V14.01,2013-01-04 07:26:00,
2013-01-04 02:27:00,32.4,18.5,30.14,West,273,2.0,8.0,56,0.00,,---,0.00,VWS V14.01,2013-01-04 07:27:00,
2013-01-04 02:28:00,32.4,18.5,30.14,WNW,300,3.0,3.0,56,0.00,,---,0.00,VWS V14.01,2013-01-04 07:28:00,
2013-01-04 02:29:00,32.4,18.5,30.14,WNW,302,6.0,11.0,56,0.00,,---,0.00,VWS V14.01,2013-01-04 07:29:00,
2013-01-04 02:31:00,32.4,18.5,30.14,West,275,4.0,6.0,56,0.00,,---,0.00,VWS V14.01,2013-01-04 07:31:00,
2013-01-04 02:32:00,32.4,18.5,30.16,WNW,297,3.0,11.0,56,0.00,,---,0.00,VWS V14.01,2013-01-04 07:32:00,
2013-01-04 02:33:00,32.4,18.5,30.16,WSW,257,3.0,6.0,56,0.00,,---,0.00,VWS V14.01,2013-01-04 07:33:00,
2013-01-04 02:34:00,32.4,18.5,30.16,WSW,244,4.0,11.0,56,0.00,,---,0.00,VWS V14.01,2013-01-04 07:34:00,
2013-01-04 02:36:00,32.4,18.5,30.16,WSW,238,11.0,21.0,56,0.00,,---,0.00,VWS V14.01,2013-01-04 07:36:00,
2013-01-04 02:37:00,32.4,18.5,30.16,WSW,248,7.0,9.0,56,0.00,,---,0.00,VWS V14.01,2013-01-04 07:37:00,
2013-01-04 02:38:00,32.4,18.5,30.16,WNW,300,2.0,3.0,56,0.00,,---,0.00,VWS V14.01,2013-01-04 07:38:00,
2013-01-04 02:39:00,32.4,18.5,30.16,WSW,248,8.0,10.0,56,0.00,,---,0.00,VWS V14.01,2013-01-04 07:39:00,
2013-01-04 02:41:00,32.4,18.5,30.16,WNW,295,1.0,1.0,56,0.00,,---,0.00,VWS V14.01,2013-01-04 07:41:00,
2013-01-04 02:42:00,32.4,18.5,30.16,West,276,2.0,3.0,56,0.00,,---,0.00,VWS V14.01,2013-01-04 07:42:00,
2013-01-04 02:43:00,32.4,18.5,30.16,West,264,0.0,4.0,56,0.00,,---,0.00,VWS V14.01,2013-01-04 07:43:00,
2013-01-04 02:44:00,32.2,18.3,30.16,WSW,244,0.0,3.0,56,0.00,,---,0.00,VWS V14.01,2013-01-04 07:44:00,
2013-01-04 02:46:00,32.2,18.3,30.16,WNW,301,5.0,5.0,56,0.00,,---,0.00,VWS V14.01,2013-01-04 07:46:00,
2013-01-04 02:47:00,32.2,18.3,30.16,West,280,1.0,12.0,56,0.00,,---,0.00,VWS V14.01,2013-01-04 07:47:00,
2013-01-04 02:48:00,32.2,18.3,30.16,West,273,2.0,4.0,56,0.00,,---,0.00,VWS V14.01,2013-01-04 07:48:00,
2013-01-04 02:49:00,32.2,18.7,30.16,NW,311,7.0,7.0,57,0.00,,---,0.00,VWS V14.01,2013-01-04 07:49:00,
2013-01-04 02:51:00,32.2,18.7,30.16,West,275,13.0,13.0,57,0.00,,---,0.00,VWS V14.01,2013-01-04 07:51:00,
2013-01-04 02:52:00,32.2,18.7,30.16,WSW,253,4.0,11.0,57,0.00,,---,0.00,VWS V14.01,2013-01-04 07:52:00,
2013-01-04 02:53:00,32.2,18.7,30.16,NW,311,4.0,16.0,57,0.00,,---,0.00,VWS V14.01,2013-01-04 07:53:00,
2013-01-04 02:54:00,32.2,18.7,30.16,WNW,285,5.0,9.0,57,0.00,,---,0.00,VWS V14.01,2013-01-04 07:54:00,
2013-01-04 02:56:00,32.2,18.7,30.16,WNW,292,11.0,11.0,57,0.00,,---,0.00,VWS V14.01,2013-01-04 07:56:00,
2013-01-04 02:57:00,32.2,18.7,30.16,West,276,4.0,19.0,57,0.00,,---,0.00,VWS V14.01,2013-01-04 07:57:00,
2013-01-04 02:58:00,32.1,18.6,30.16,West,281,10.0,10.0,57,0.00,,---,0.00,VWS V14.01,2013-01-04 07:58:00,
2013-01-04 02:59:00,32.1,18.6,30.16,SW,225,0.0,10.0,57,0.00,,---,0.00,VWS V14.01,2013-01-04 07:59:00,
2013-01-04 03:01:00,32.1,18.6,30.16,West,268,2.0,2.0,57,0.00,,---,0.00,VWS V14.01,2013-01-04 08:01:00,
2013-01-04 03:02:00,32.1,18.6,30.17,SW,234,11.0,12.0,57,0.00,,---,0.00,VWS V14.01,2013-01-04 08:02:00,
2013-01-04 03:04:00,32.1,18.6,30.17,West,272,3.0,12.0,57,0.00,,---,0.00,VWS V14.01,2013-01-04 08:04:00,
2013-01-04 03:06:00,32.1,18.6,30.17,WNW,294,2.0,5.0,57,0.00,,---,0.00,VWS V14.01,2013-01-04 08:06:00,
2013-01-04 03:07:00,32.1,18.6,30.17,WNW,293,2.0,10.0,57,0.00,,---,0.00,VWS V14.01,2013-01-04 08:07:00,
2013-01-04 03:09:00,32.1,18.6,30.17,West,269,3.0,5.0,57,0.00,,---,0.00,VWS V14.01,2013-01-04 08:09:00,
2013-01-04 03:11:00,31.9,18.4,30.17,WSW,238,4.0,11.0,57,0.00,,---,0.00,VWS V14.01,2013-01-04 08:11:00,
2013-01-04 03:12:00,31.9,18.4,30.17,WNW,295,0.0,3.0,57,0.00,,---,0.00,VWS V14.01,2013-01-04 08:12:00,
2013-01-04 03:14:00,31.9,18.4,30.17,WNW,295,0.0,0.0,57,0.00,,---,0.00,VWS V14.01,2013-01-04 08:14:00,
2013-01-04 03:15:00,31.9,18.4,30.17,WNW,295,2.0,2.0,57,0.00,,---,0.00,VWS V14.01,2013-01-04 08:15:00,
2013-01-04 03:16:00,31.9,18.4,30.17,WNW,290,0.0,5.0,57,0.00,,---,0.00,VWS V14.01,2013-01-04 08:16:00,
2013-01-04 03:18:00,31.9,18.4,30.16,SW,221,3.0,9.0,57,0.00,,---,0.00,VWS V14.01,2013-01-04 08:18:00,
2013-01-04 03:19:00,31.9,18.4,30.16,SW,221,2.0,5.0,57,0.00,,---,0.00,VWS V14.01,2013-01-04 08:19:00,
2013-01-04 03:20:00,31.9,18.4,30.16,WNW,288,11.0,11.0,57,0.00,,---,0.00,VWS V14.01,2013-01-04 08:20:00,
2013-01-04 03:21:00,31.9,18.4,30.16,West,281,3.0,15.0,57,0.00,,---,0.00,VWS V14.01,2013-01-04 08:21:00,
2013-01-04 03:23:00,31.9,18.4,30.16,WNW,285,0.0,0.0,57,0.00,,---,0.00,VWS V14.01,2013-01-04 08:23:00,
2013-01-04 03:24:00,31.8,18.3,30.16,NNW,342,4.0,7.0,57,0.00,,---,0.00,VWS V14.01,2013-01-04 08:24:00,
2013-01-04 03:25:00,31.8,18.3,30.16,NNW,334,0.0,4.0,57,0.00,,---,0.00,VWS V14.01,2013-01-04 08:25:00,
2013-01-04 03:26:00,31.8,18.3,30.16,West,276,1.0,6.0,57,0.00,,---,0.00,VWS V14.01,2013-01-04 08:26:00,
2013-01-04 03:28:00,31.8,18.3,30.16,NW,308,8.0,9.0,57,0.00,,---,0.00,VWS V14.01,2013-01-04 08:28:00,
2013-01-04 03:29:00,31.8,18.3,30.16,West,281,2.0,16.0,57,0.00,,---,0.00,VWS V14.01,2013-01-04 08:29:00,
2013-01-04 03:30:00,31.8,18.3,30.16,SW,223,5.0,5.0,57,0.00,,---,0.00,VWS V14.01,2013-01-04 08:30:00,
2013-01-04 03:31:00,31.8,18.7,30.16,SW,234,4.0,7.0,58,0.00,,---,0.00,VWS V14.01,2013-01-04 08:31:00,
2013-01-04 03:33:00,31.8,18.7,30.16,West,259,3.0,5.0,58,0.00,,---,0.00,VWS V14.01,2013-01-04 08:33:00,
2013-01-04 03:34:00,31.8,18.7,30.16,West,260,1.0,9.0,58,0.00,,---,0.00,VWS V14.01,2013-01-04 08:34:00,
2013-01-04 03:35:00,31.8,18.7,30.16,WNW,293,3.0,3.0,58,0.00,,---,0.00,VWS V14.01,2013-01-04 08:35:00,
2013-01-04 03:36:00,31.6,18.5,30.16,WSW,252,0.0,5.0,58,0.00,,---,0.00,VWS V14.01,2013-01-04 08:36:00,
2013-01-04 03:38:00,31.6,18.5,30.16,WNW,295,3.0,4.0,58,0.00,,---,0.00,VWS V14.01,2013-01-04 08:38:00,
2013-01-04 03:39:00,31.6,18.5,30.16,WNW,290,0.0,4.0,58,0.00,,---,0.00,VWS V14.01,2013-01-04 08:39:00,
2013-01-04 03:40:00,31.6,18.5,30.16,West,274,0.0,3.0,58,0.00,,---,0.00,VWS V14.01,2013-01-04 08:40:00,
2013-01-04 03:41:00,31.6,18.5,30.16,West,271,3.0,4.0,58,0.00,,---,0.00,VWS V14.01,2013-01-04 08:41:00,
2013-01-04 03:43:00,31.6,18.5,30.16,WNW,295,2.0,4.0,58,0.00,,---,0.00,VWS V14.01,2013-01-04 08:43:00,
2013-01-04 03:44:00,31.5,18.4,30.16,West,272,0.0,5.0,58,0.00,,---,0.00,VWS V14.01,2013-01-04 08:44:00,
2013-01-04 03:45:00,31.5,18.4,30.16,NW,315,3.0,3.0,58,0.00,,---,0.00,VWS V14.01,2013-01-04 08:45:00,
2013-01-04 03:46:00,31.5,18.4,30.16,NW,315,1.0,1.0,58,0.00,,---,0.00,VWS V14.01,2013-01-04 08:46:00,
2013-01-04 03:48:00,31.5,18.4,30.16,West,268,3.0,3.0,58,0.00,,---,0.00,VWS V14.01,2013-01-04 08:48:00,
2013-01-04 03:49:00,31.5,18.4,30.16,WSW,256,6.0,8.0,58,0.00,,---,0.00,VWS V14.01,2013-01-04 08:49:00,
2013-01-04 03:50:00,31.5,20.0,30.16,WNW,295,2.0,5.0,62,0.00,,---,0.00,VWS V14.01,2013-01-04 08:50:00,
2013-01-04 03:51:00,31.3,18.2,30.16,West,268,6.0,6.0,58,0.00,,---,0.00,VWS V14.01,2013-01-04 08:51:00,
2013-01-04 03:53:00,31.3,18.2,30.16,WSW,252,6.0,6.0,58,0.00,,---,0.00,VWS V14.01,2013-01-04 08:53:00,
2013-01-04 03:54:00,31.3,18.2,30.16,WSW,242,7.0,9.0,58,0.00,,---,0.00,VWS V14.01,2013-01-04 08:54:00,
2013-01-04 03:55:00,31.3,18.2,30.16,SW,230,2.0,10.0,58,0.00,,---,0.00,VWS V14.01,2013-01-04 08:55:00,
2013-01-04 03:56:00,31.3,18.2,30.16,SW,230,2.0,5.0,58,0.00,,---,0.00,VWS V14.01,2013-01-04 08:56:00,
2013-01-04 03:58:00,31.3,18.2,30.16,NW,307,6.0,9.0,58,0.00,,---,0.00,VWS V14.01,2013-01-04 08:58:00,
2013-01-04 04:00:00,31.3,18.2,30.16,WNW,288,5.0,12.0,58,0.00,,---,0.00,VWS V14.01,2013-01-04 09:00:00,
2013-01-04 04:01:00,31.3,18.2,30.16,WSW,248,4.0,6.0,58,0.00,,---,0.00,VWS V14.01,2013-01-04 09:01:00,
2013-01-04 04:03:00,31.3,18.2,30.17,West,263,3.0,5.0,58,0.00,,---,0.00,VWS V14.01,2013-01-04 09:03:00,
2013-01-04 04:05:00,31.3,18.2,30.17,NW,306,4.0,6.0,58,0.00,,---,0.00,VWS V14.01,2013-01-04 09:05:00,
2013-01-04 04:06:00,31.3,18.2,30.17,WNW,294,5.0,7.0,58,0.00,,---,0.00,VWS V14.01,2013-01-04 09:06:00,
2013-01-04 04:08:00,31.3,18.2,30.17,West,263,18.0,20.0,58,0.00,,---,0.00,VWS V14.01,2013-01-04 09:08:00,
2013-01-04 04:10:00,31.2,18.2,30.17,SSW,213,9.0,10.0,58,0.00,,---,0.00,VWS V14.01,2013-01-04 09:10:00,
2013-01-04 04:11:00,31.2,18.5,30.17,West,275,6.0,12.0,59,0.00,,---,0.00,VWS V14.01,2013-01-04 09:11:00,
2013-01-04 04:13:00,31.2,18.2,30.17,WSW,252,5.0,6.0,58,0.00,,---,0.00,VWS V14.01,2013-01-04 09:13:00,
2013-01-04 04:15:00,31.2,18.2,30.17,WNW,303,5.0,7.0,58,0.00,,---,0.00,VWS V14.01,2013-01-04 09:15:00,
2013-01-04 04:16:00,31.2,18.2,30.17,West,278,2.0,6.0,58,0.00,,---,0.00,VWS V14.01,2013-01-04 09:16:00,
2013-01-04 04:18:00,31.2,18.2,30.17,West,273,2.0,3.0,58,0.00,,---,0.00,VWS V14.01,2013-01-04 09:18:00,
2013-01-04 04:20:00,31.2,18.2,30.17,SW,224,2.0,5.0,58,0.00,,---,0.00,VWS V14.01,2013-01-04 09:20:00,
2013-01-04 04:21:00,31.2,18.2,30.17,WSW,240,1.0,6.0,58,0.00,,---,0.00,VWS V14.01,2013-01-04 09:21:00,
2013-01-04 04:23:00,31.2,18.2,30.17,WNW,288,4.0,6.0,58,0.00,,---,0.00,VWS V14.01,2013-01-04 09:23:00,
2013-01-04 04:25:00,31.2,18.2,30.17,WSW,251,5.0,12.0,58,0.00,,---,0.00,VWS V14.01,2013-01-04 09:25:00,
2013-01-04 04:26:00,31.2,18.2,30.17,WNW,294,7.0,13.0,58,0.00,,---,0.00,VWS V14.01,2013-01-04 09:26:00,
2013-01-04 04:28:00,31.0,18.0,30.17,WNW,292,5.0,5.0,58,0.00,,---,0.00,VWS V14.01,2013-01-04 09:28:00,
2013-01-04 04:30:00,31.0,18.0,30.17,WNW,291,0.0,0.0,58,0.00,,---,0.00,VWS V14.01,2013-01-04 09:30:00,
2013-01-04 04:31:00,31.0,18.0,30.17,WNW,291,1.0,3.0,58,0.00,,---,0.00,VWS V14.01,2013-01-04 09:31:00,
2013-01-04 04:34:00,31.0,18.0,30.16,WNW,292,1.0,2.0,58,0.00,,---,0.00,VWS V14.01,2013-01-04 09:34:00,
2013-01-04 04:35:00,31.0,18.0,30.16,NW,313,5.0,5.0,58,0.00,,---,0.00,VWS V14.01,2013-01-04 09:35:00,
2013-01-04 04:36:00,31.0,18.0,30.16,WNW,303,4.0,13.0,58,0.00,,---,0.00,VWS V14.01,2013-01-04 09:36:00,
2013-01-04 04:39:00,31.0,18.4,30.16,West,279,3.0,3.0,59,0.00,,---,0.00,VWS V14.01,2013-01-04 09:39:00,
2013-01-04 04:40:00,31.0,18.4,30.16,SW,228,10.0,15.0,59,0.00,,---,0.00,VWS V14.01,2013-01-04 09:40:00,
2013-01-04 04:41:00,31.0,18.4,30.16,SW,236,0.0,10.0,59,0.00,,---,0.00,VWS V14.01,2013-01-04 09:41:00,
2013-01-04 04:44:00,31.0,18.0,30.16,WSW,256,6.0,6.0,58,0.00,,---,0.00,VWS V14.01,2013-01-04 09:44:00,
2013-01-04 04:45:00,31.0,18.4,30.16,SSW,209,5.0,5.0,59,0.00,,---,0.00,VWS V14.01,2013-01-04 09:45:00,
2013-01-04 04:46:00,31.0,18.4,30.16,SSW,209,5.0,5.0,59,0.00,,---,0.00,VWS V14.01,2013-01-04 09:46:00,
2013-01-04 04:49:00,31.0,18.4,30.16,SSW,210,0.0,0.0,59,0.00,,---,0.00,VWS V14.01,2013-01-04 09:49:00,
2013-01-04 04:50:00,31.0,18.4,30.16,West,262,2.0,7.0,59,0.00,,---,0.00,VWS V14.01,2013-01-04 09:50:00,
2013-01-04 04:51:00,31.0,18.4,30.16,WSW,256,7.0,7.0,59,0.00,,---,0.00,VWS V14.01,2013-01-04 09:51:00,
2013-01-04 04:54:00,31.0,18.4,30.16,WNW,296,6.0,7.0,59,0.00,,---,0.00,VWS V14.01,2013-01-04 09:54:00,
2013-01-04 04:55:00,31.0,18.4,30.16,West,269,0.0,5.0,59,0.00,,---,0.00,VWS V14.01,2013-01-04 09:55:00,
2013-01-04 04:57:00,31.0,18.4,30.16,NNW,335,4.0,9.0,59,0.00,,---,0.00,VWS V14.01,2013-01-04 09:57:00,
2013-01-04 04:59:00,31.0,18.0,30.16,WSW,252,4.0,5.0,58,0.00,,---,0.00,VWS V14.01,2013-01-04 09:59:00,
2013-01-04 05:00:00,31.0,18.0,30.16,West,271,3.0,4.0,58,0.00,,---,0.00,VWS V14.01,2013-01-04 10:00:00,
2013-01-04 05:02:00,31.0,18.4,30.16,West,271,4.0,7.0,59,0.00,,---,0.00,VWS V14.01,2013-01-04 10:02:00,
2013-01-04 05:04:00,31.0,18.4,30.16,WSW,252,4.0,12.0,59,0.00,,---,0.00,VWS V14.01,2013-01-04 10:04:00,
2013-01-04 05:05:00,31.0,18.4,30.16,NNW,327,4.0,9.0,59,0.00,,---,0.00,VWS V14.01,2013-01-04 10:05:00,
2013-01-04 05:07:00,31.0,18.4,30.16,NNW,327,7.0,10.0,59,0.00,,---,0.00,VWS V14.01,2013-01-04 10:07:00,
2013-01-04 05:09:00,31.0,18.4,30.16,WNW,295,4.0,4.0,59,0.00,,---,0.00,VWS V14.01,2013-01-04 10:09:00,
2013-01-04 05:10:00,31.0,18.4,30.16,WSW,257,11.0,11.0,59,0.00,,---,0.00,VWS V14.01,2013-01-04 10:10:00,
2013-01-04 05:12:00,31.0,18.4,30.16,West,261,7.0,10.0,59,0.00,,---,0.00,VWS V14.01,2013-01-04 10:12:00,
2013-01-04 05:14:00,31.0,18.4,30.16,WNW,291,6.0,6.0,59,0.00,,---,0.00,VWS V14.01,2013-01-04 10:14:00,
2013-01-04 05:15:00,31.0,18.4,30.16,West,261,2.0,6.0,59,0.00,,---,0.00,VWS V14.01,2013-01-04 10:15:00,
2013-01-04 05:17:00,31.0,18.4,30.17,SW,221,7.0,7.0,59,0.00,,---,0.00,VWS V14.01,2013-01-04 10:17:00,
2013-01-04 05:19:00,31.0,18.4,30.17,NW,318,0.0,4.0,59,0.00,,---,0.00,VWS V14.01,2013-01-04 10:19:00,
2013-01-04 05:20:00,31.0,18.4,30.17,WSW,253,5.0,6.0,59,0.00,,---,0.00,VWS V14.01,2013-01-04 10:20:00,
2013-01-04 05:21:00,31.0,18.4,30.17,West,263,0.0,2.0,59,0.00,,---,0.00,VWS V14.01,2013-01-04 10:21:00,
2013-01-04 05:22:00,31.0,18.4,30.17,West,261,1.0,4.0,59,0.00,,---,0.00,VWS V14.01,2013-01-04 10:22:00,
2013-01-04 05:24:00,31.0,18.4,30.17,West,261,3.0,3.0,59,0.00,,---,0.00,VWS V14.01,2013-01-04 10:24:00,
2013-01-04 05:25:00,31.0,18.4,30.17,SW,231,6.0,6.0,59,0.00,,---,0.00,VWS V14.01,2013-01-04 10:25:00,
2013-01-04 05:26:00,31.0,18.4,30.17,WSW,240,4.0,5.0,59,0.00,,---,0.00,VWS V14.01,2013-01-04 10:26:00,
2013-01-04 05:27:00,30.9,18.3,30.17,WSW,242,1.0,2.0,59,0.00,,---,0.00,VWS V14.01,2013-01-04 10:27:00,
2013-01-04 05:29:00,30.9,18.3,30.17,WSW,242,0.0,0.0,59,0.00,,---,0.00,VWS V14.01,2013-01-04 10:29:00,
2013-01-04 05:30:00,30.9,18.3,30.17,West,263,0.0,4.0,59,0.00,,---,0.00,VWS V14.01,2013-01-04 10:30:00,
2013-01-04 05:31:00,30.9,18.3,30.17,West,263,1.0,1.0,59,0.00,,---,0.00,VWS V14.01,2013-01-04 10:31:00,
2013-01-04 05:32:00,30.9,18.3,30.17,SW,236,3.0,3.0,59,0.00,,---,0.00,VWS V14.01,2013-01-04 10:32:00,
2013-01-04 05:34:00,30.9,18.3,30.17,WSW,246,1.0,4.0,59,0.00,,---,0.00,VWS V14.01,2013-01-04 10:34:00,
2013-01-04 05:35:00,30.9,18.7,30.17,WSW,250,5.0,11.0,60,0.00,,---,0.00,VWS V14.01,2013-01-04 10:35:00,
2013-01-04 05:36:00,30.9,18.7,30.17,WSW,250,4.0,10.0,60,0.00,,---,0.00,VWS V14.01,2013-01-04 10:36:00,
2013-01-04 05:37:00,30.9,18.7,30.17,WSW,242,1.0,4.0,60,0.00,,---,0.00,VWS V14.01,2013-01-04 10:37:00,
2013-01-04 05:39:00,30.9,18.3,30.17,WSW,240,2.0,6.0,59,0.00,,---,0.00,VWS V14.01,2013-01-04 10:39:00,
2013-01-04 05:40:00,30.9,18.3,30.17,South,190,7.0,10.0,59,0.00,,---,0.00,VWS V14.01,2013-01-04 10:40:00,
2013-01-04 05:41:00,30.9,18.3,30.17,West,280,5.0,10.0,59,0.00,,---,0.00,VWS V14.01,2013-01-04 10:41:00,
2013-01-04 05:42:00,30.9,18.3,30.17,WSW,252,5.0,9.0,59,0.00,,---,0.00,VWS V14.01,2013-01-04 10:42:00,
2013-01-04 05:44:00,30.9,18.3,30.17,WSW,248,9.0,9.0,59,0.00,,---,0.00,VWS V14.01,2013-01-04 10:44:00,
2013-01-04 05:45:00,30.9,18.7,30.17,West,271,3.0,4.0,60,0.00,,---,0.00,VWS V14.01,2013-01-04 10:45:00,
2013-01-04 05:46:00,30.9,18.7,30.17,West,270,2.0,4.0,60,0.00,,---,0.00,VWS V14.01,2013-01-04 10:46:00,
2013-01-04 05:47:00,30.9,18.7,30.17,West,273,2.0,4.0,60,0.00,,---,0.00,VWS V14.01,2013-01-04 10:47:00,
2013-01-04 05:49:00,30.9,18.7,30.17,WSW,257,0.0,2.0,60,0.00,,---,0.00,VWS V14.01,2013-01-04 10:49:00,
2013-01-04 05:51:00,30.9,18.7,30.17,WNW,294,3.0,3.0,60,0.00,,---,0.00,VWS V14.01,2013-01-04 10:51:00,
2013-01-04 05:52:00,30.9,18.7,30.17,West,277,1.0,4.0,60,0.00,,---,0.00,VWS V14.01,2013-01-04 10:52:00,
2013-01-04 05:54:00,30.9,18.7,30.17,SSW,207,10.0,12.0,60,0.00,,---,0.00,VWS V14.01,2013-01-04 10:54:00,
2013-01-04 05:56:00,30.9,18.7,30.17,WSW,244,2.0,4.0,60,0.00,,---,0.00,VWS V14.01,2013-01-04 10:56:00,
2013-01-04 05:57:00,30.9,18.7,30.17,WSW,242,4.0,5.0,60,0.00,,---,0.00,VWS V14.01,2013-01-04 10:57:00,
2013-01-04 05:59:00,30.9,18.7,30.17,WSW,250,0.0,3.0,60,0.00,,---,0.00,VWS V14.01,2013-01-04 10:59:00,
2013-01-04 06:01:00,30.9,18.7,30.17,WNW,299,0.0,0.0,60,0.00,,---,0.00,VWS V14.01,2013-01-04 11:01:00,
2013-01-04 06:02:00,30.9,18.7,30.17,SW,223,8.0,8.0,60,0.00,,---,0.00,VWS V14.01,2013-01-04 11:02:00,
2013-01-04 06:04:00,30.9,18.7,30.17,West,267,0.0,12.0,60,0.00,,---,0.00,VWS V14.01,2013-01-04 11:04:00,
2013-01-04 06:06:00,30.9,18.7,30.17,West,272,4.0,4.0,60,0.00,,---,0.00,VWS V14.01,2013-01-04 11:06:00,
2013-01-04 06:07:00,30.9,18.7,30.17,West,272,1.0,3.0,60,0.00,,---,0.00,VWS V14.01,2013-01-04 11:07:00,
2013-01-04 06:09:00,30.9,18.7,30.17,West,263,2.0,10.0,60,0.00,,---,0.00,VWS V14.01,2013-01-04 11:09:00,
2013-01-04 06:11:00,30.9,18.7,30.17,WSW,239,7.0,13.0,60,0.00,,---,0.00,VWS V14.01,2013-01-04 11:11:00,
2013-01-04 06:12:00,30.9,18.3,30.17,WNW,295,3.0,9.0,59,0.00,,---,0.00,VWS V14.01,2013-01-04 11:12:00,
2013-01-04 06:14:00,30.9,18.7,30.17,West,265,2.0,4.0,60,0.00,,---,0.00,VWS V14.01,2013-01-04 11:14:00,
2013-01-04 06:16:00,30.9,18.7,30.17,West,265,1.0,3.0,60,0.00,,---,0.00,VWS V14.01,2013-01-04 11:16:00,
2013-01-04 06:17:00,30.9,18.7,30.17,SW,235,4.0,4.0,60,0.00,,---,0.00,VWS V14.01,2013-01-04 11:17:00,
2013-01-04 06:19:00,30.9,18.7,30.17,WNW,299,3.0,5.0,60,0.00,,---,0.00,VWS V14.01,2013-01-04 11:19:00,
2013-01-04 06:21:00,30.9,18.3,30.17,WNW,302,1.0,3.0,59,0.00,,---,0.00,VWS V14.01,2013-01-04 11:21:00,
2013-01-04 06:23:00,30.9,18.7,30.17,WSW,251,2.0,4.0,60,0.00,,---,0.00,VWS V14.01,2013-01-04 11:23:00,
2013-01-04 06:24:00,30.9,18.7,30.17,SW,217,6.0,6.0,60,0.00,,---,0.00,VWS V14.01,2013-01-04 11:24:00,
2013-01-04 06:26:00,30.9,18.7,30.17,SW,217,3.0,4.0,60,0.00,,---,0.00,VWS V14.01,2013-01-04 11:26:00,
2013-01-04 06:28:00,30.9,18.7,30.17,WNW,294,4.0,5.0,60,0.00,,---,0.00,VWS V14.01,2013-01-04 11:28:00,
2013-01-04 06:29:00,30.9,18.7,30.17,West,269,8.0,10.0,60,0.00,,---,0.00,VWS V14.01,2013-01-04 11:29:00,
2013-01-04 06:31:00,30.9,18.7,30.17,SW,236,5.0,9.0,60,0.00,,---,0.00,VWS V14.01,2013-01-04 11:31:00,
2013-01-04 06:33:00,30.9,18.7,30.17,WSW,237,3.0,4.0,60,0.00,,---,0.00,VWS V14.01,2013-01-04 11:33:00,
2013-01-04 06:34:00,30.9,18.7,30.17,WSW,252,3.0,3.0,60,0.00,,---,0.00,VWS V14.01,2013-01-04 11:34:00,
2013-01-04 06:36:00,30.7,18.5,30.17,WSW,247,2.0,4.0,60,0.00,,---,0.00,VWS V14.01,2013-01-04 11:36:00,
2013-01-04 06:38:00,30.7,18.5,30.17,WSW,247,4.0,5.0,60,0.00,,---,0.00,VWS V14.01,2013-01-04 11:38:00,
2013-01-04 06:39:00,30.7,18.5,30.17,WSW,247,0.0,0.0,60,0.00,,---,0.00,VWS V14.01,2013-01-04 11:39:00,
2013-01-04 06:41:00,30.7,18.5,30.17,West,278,0.0,3.0,60,0.00,,---,0.00,VWS V14.01,2013-01-04 11:41:00,
2013-01-04 06:43:00,30.7,18.5,30.17,WSW,248,10.0,11.0,60,0.00,,---,0.00,VWS V14.01,2013-01-04 11:43:00,
2013-01-04 06:45:00,30.7,18.5,30.17,West,263,1.0,3.0,60,0.00,,---,0.00,VWS V14.01,2013-01-04 11:45:00,
2013-01-04 06:46:00,30.7,18.5,30.17,WNW,286,2.0,10.0,60,0.00,,---,0.00,VWS V14.01,2013-01-04 11:46:00,
2013-01-04 06:47:00,30.7,18.5,30.17,WNW,286,1.0,1.0,60,0.00,,---,0.00,VWS V14.01,2013-01-04 11:47:00,
2013-01-04 06:48:00,30.7,18.5,30.17,West,274,6.0,7.0,60,0.00,,---,0.00,VWS V14.01,2013-01-04 11:48:00,
2013-01-04 06:50:00,30.9,18.7,30.17,WSW,248,6.0,11.0,60,0.00,,---,0.00,VWS V14.01,2013-01-04 11:50:00,
2013-01-04 06:51:00,30.9,18.7,30.17,WNW,282,1.0,10.0,60,0.00,,---,0.00,VWS V14.01,2013-01-04 11:51:00,
2013-01-04 06:52:00,30.9,18.7,30.17,WNW,286,0.0,1.0,60,0.00,,---,0.00,VWS V14.01,2013-01-04 11:52:00,
2013-01-04 06:53:00,30.9,18.7,30.17,SW,218,5.0,5.0,60,0.00,,---,0.00,VWS V14.01,2013-01-04 11:53:00,
2013-01-04 06:55:00,30.9,18.7,30.17,SW,228,5.0,10.0,60,0.00,,---,0.00,VWS V14.01,2013-01-04 11:55:00,
2013-01-04 06:56:00,30.9,18.7,30.17,West,268,7.0,10.0,60,0.00,,---,0.00,VWS V14.01,2013-01-04 11:56:00,
2013-01-04 06:57:00,30.9,18.7,30.17,SW,229,12.0,12.0,60,0.00,,---,0.00,VWS V14.01,2013-01-04 11:57:00,
2013-01-04 06:58:00,30.9,18.7,30.17,SW,225,5.0,7.0,60,0.00,,---,0.00,VWS V14.01,2013-01-04 11:58:00,
2013-01-04 07:00:00,30.9,18.7,30.17,SW,236,10.0,11.0,60,0.00,,---,0.00,VWS V14.01,2013-01-04 12:00:00,
2013-01-04 07:01:00,30.9,18.7,30.17,NW,304,2.0,6.0,60,0.00,,---,0.00,VWS V14.01,2013-01-04 12:01:00,
2013-01-04 07:02:00,30.9,18.7,30.17,WSW,237,3.0,11.0,60,0.00,,---,0.00,VWS V14.01,2013-01-04 12:02:00,
2013-01-04 07:03:00,30.9,18.7,30.17,WSW,237,3.0,4.0,60,0.00,,---,0.00,VWS V14.01,2013-01-04 12:03:00,
2013-01-04 07:05:00,30.9,18.7,30.17,West,261,11.0,11.0,60,0.00,,---,0.00,VWS V14.01,2013-01-04 12:05:00,
2013-01-04 07:06:00,30.9,18.7,30.17,WNW,283,5.0,11.0,60,0.00,,---,0.00,VWS V14.01,2013-01-04 12:06:00,
2013-01-04 07:07:00,30.9,18.7,30.17,WSW,247,4.0,5.0,60,0.00,,---,0.00,VWS V14.01,2013-01-04 12:07:00,
2013-01-04 07:08:00,30.9,18.7,30.17,WSW,247,1.0,3.0,60,0.00,,---,0.00,VWS V14.01,2013-01-04 12:08:00,
2013-01-04 07:10:00,30.9,18.7,30.17,WSW,247,0.0,2.0,60,0.00,,---,0.00,VWS V14.01,2013-01-04 12:10:00,
2013-01-04 07:11:00,30.9,18.7,30.17,WNW,301,4.0,12.0,60,0.00,,---,0.00,VWS V14.01,2013-01-04 12:11:00,
2013-01-04 07:12:00,30.9,18.7,30.17,West,262,3.0,5.0,60,0.00,,---,0.00,VWS V14.01,2013-01-04 12:12:00,
2013-01-04 07:13:00,30.9,18.7,30.17,West,264,3.0,3.0,60,0.00,,---,0.00,VWS V14.01,2013-01-04 12:13:00,
2013-01-04 07:15:00,30.9,18.7,30.17,WSW,247,6.0,6.0,60,0.00,,---,0.00,VWS V14.01,2013-01-04 12:15:00,
2013-01-04 07:16:00,30.9,18.7,30.17,WSW,247,3.0,3.0,60,0.00,,---,0.00,VWS V14.01,2013-01-04 12:16:00,
2013-01-04 07:17:00,30.9,18.7,30.17,WSW,240,6.0,12.0,60,0.00,,---,0.00,VWS V14.01,2013-01-04 12:17:00,
2013-01-04 07:18:00,30.9,18.7,30.17,West,265,12.0,12.0,60,0.00,,---,0.00,VWS V14.01,2013-01-04 12:18:00,
2013-01-04 07:20:00,30.9,18.7,30.17,West,266,10.0,10.0,60,0.00,,---,0.00,VWS V14.01,2013-01-04 12:20:00,
2013-01-04 07:21:00,30.9,18.7,30.17,West,266,5.0,5.0,60,0.00,,---,0.00,VWS V14.01,2013-01-04 12:21:00,
2013-01-04 07:22:00,30.9,18.7,30.17,West,265,0.0,5.0,60,0.00,,---,0.00,VWS V14.01,2013-01-04 12:22:00,
2013-01-04 07:23:00,30.9,18.7,30.17,West,265,2.0,2.0,60,0.00,,---,0.00,VWS V14.01,2013-01-04 12:23:00,
2013-01-04 07:25:00,30.9,18.7,30.17,SW,223,1.0,3.0,60,0.00,,---,0.00,VWS V14.01,2013-01-04 12:25:00,
2013-01-04 07:26:00,30.9,18.7,30.17,SW,223,3.0,3.0,60,0.00,,---,0.00,VWS V14.01,2013-01-04 12:26:00,
2013-01-04 07:27:00,30.9,18.7,30.17,WNW,285,2.0,6.0,60,0.00,,---,0.00,VWS V14.01,2013-01-04 12:27:00,
2013-01-04 07:28:00,30.9,18.7,30.17,WSW,246,1.0,7.0,60,0.00,,---,0.00,VWS V14.01,2013-01-04 12:28:00,
2013-01-04 07:30:00,30.9,18.7,30.17,WSW,247,4.0,4.0,60,0.00,,---,0.00,VWS V14.01,2013-01-04 12:30:00,
2013-01-04 07:31:00,30.9,18.7,30.17,WSW,254,0.0,1.0,60,0.00,,---,0.00,VWS V14.01,2013-01-04 12:31:00,
2013-01-04 07:32:00,30.9,18.7,30.17,WSW,254,1.0,1.0,60,0.00,,---,0.00,VWS V14.01,2013-01-04 12:32:00,
2013-01-04 07:33:00,30.9,18.7,30.17,WNW,290,1.0,7.0,60,0.00,,---,0.00,VWS V14.01,2013-01-04 12:33:00,
2013-01-04 07:35:00,30.9,18.7,30.17,SW,234,4.0,6.0,60,0.00,,---,0.00,VWS V14.01,2013-01-04 12:35:00,
2013-01-04 07:36:00,30.9,19.0,30.17,SW,232,2.0,2.0,61,0.00,,---,0.00,VWS V14.01,2013-01-04 12:36:00,
2013-01-04 07:37:00,30.9,18.7,30.17,SW,232,2.0,3.0,60,0.00,,---,0.00,VWS V14.01,2013-01-04 12:37:00,
2013-01-04 07:38:00,30.9,18.7,30.17,SW,229,1.0,3.0,60,0.00,,---,0.00,VWS V14.01,2013-01-04 12:38:00,
2013-01-04 07:40:00,30.9,18.7,30.17,SW,229,0.0,2.0,60,0.00,,---,0.00,VWS V14.01,2013-01-04 12:40:00,
2013-01-04 07:41:00,30.9,18.7,30.17,SW,229,0.0,3.0,60,0.00,,---,0.00,VWS V14.01,2013-01-04 12:41:00,
2013-01-04 07:42:00,30.9,19.0,30.17,West,280,7.0,7.0,61,0.00,,---,0.00,VWS V14.01,2013-01-04 12:42:00,
2013-01-04 07:43:00,30.9,19.0,30.17,NW,309,1.0,9.0,61,0.00,,---,0.00,VWS V14.01,2013-01-04 12:43:00,
2013-01-04 07:45:00,30.9,19.0,30.17,WSW,248,2.0,6.0,61,0.00,,---,0.00,VWS V14.01,2013-01-04 12:45:00,
2013-01-04 07:46:00,30.9,19.0,30.17,West,266,4.0,13.0,61,0.00,,---,0.00,VWS V14.01,2013-01-04 12:46:00,
2013-01-04 07:47:00,30.9,19.0,30.16,West,276,6.0,12.0,61,0.00,,---,0.00,VWS V14.01,2013-01-04 12:47:00,
2013-01-04 07:48:00,30.9,19.0,30.16,West,259,0.0,3.0,61,0.00,,---,0.00,VWS V14.01,2013-01-04 12:48:00,
2013-01-04 07:50:00,30.9,19.0,30.16,SW,232,5.0,5.0,61,0.00,,---,0.00,VWS V14.01,2013-01-04 12:50:00,
2013-01-04 07:51:00,30.9,19.0,30.16,WNW,284,5.0,6.0,61,0.00,,---,0.00,VWS V14.01,2013-01-04 12:51:00,
2013-01-04 07:52:00,30.9,19.0,30.16,WNW,284,1.0,3.0,61,0.00,,---,0.00,VWS V14.01,2013-01-04 12:52:00,
2013-01-04 07:54:00,30.9,19.0,30.16,SW,233,5.0,6.0,61,0.00,,---,0.00,VWS V14.01,2013-01-04 12:54:00,
2013-01-04 07:55:00,30.9,19.0,30.16,SW,234,5.0,7.0,61,0.00,,---,0.00,VWS V14.01,2013-01-04 12:55:00,
2013-01-04 07:57:00,30.9,19.0,30.16,SW,234,3.0,3.0,61,0.00,,---,0.00,VWS V14.01,2013-01-04 12:57:00,
2013-01-04 07:59:00,30.9,17.5,30.16,WSW,243,1.0,2.0,57,0.00,,---,0.00,VWS V14.01,2013-01-04 12:59:00,
2013-01-04 08:00:00,30.9,19.0,30.16,WSW,243,1.0,4.0,61,0.00,,---,0.00,VWS V14.01,2013-01-04 13:00:00,
2013-01-04 08:02:00,30.9,19.0,30.16,West,267,2.0,2.0,61,0.00,,---,0.00,VWS V14.01,2013-01-04 13:02:00,
2013-01-04 08:04:00,30.9,19.0,30.16,SW,232,11.0,11.0,61,0.00,,---,0.00,VWS V14.01,2013-01-04 13:04:00,
2013-01-04 08:05:00,31.0,19.1,30.16,West,269,2.0,5.0,61,0.00,,---,0.00,VWS V14.01,2013-01-04 13:05:00,
2013-01-04 08:07:00,31.0,19.1,30.16,WNW,300,8.0,13.0,61,0.00,,---,0.00,VWS V14.01,2013-01-04 13:07:00,
2013-01-04 08:09:00,31.0,19.1,30.16,WSW,247,4.0,11.0,61,0.00,,---,0.00,VWS V14.01,2013-01-04 13:09:00,
2013-01-04 08:10:00,31.0,19.1,30.16,SSW,213,0.0,6.0,61,0.00,,---,0.00,VWS V14.01,2013-01-04 13:10:00,
2013-01-04 08:12:00,31.0,19.1,30.16,WSW,257,8.0,12.0,61,0.00,,---,0.00,VWS V14.01,2013-01-04 13:12:00,
2013-01-04 08:14:00,31.2,19.3,30.16,West,279,1.0,3.0,61,0.00,,---,0.00,VWS V14.01,2013-01-04 13:14:00,
2013-01-04 08:15:00,31.2,19.3,30.16,WNW,283,0.0,3.0,61,0.00,,---,0.00,VWS V14.01,2013-01-04 13:15:00,
2013-01-04 08:17:00,31.2,19.3,30.16,WSW,243,3.0,4.0,61,0.00,,---,0.00,VWS V14.01,2013-01-04 13:17:00,
2013-01-04 08:19:00,31.2,19.3,30.16,WSW,240,3.0,8.0,61,0.00,,---,0.00,VWS V14.01,2013-01-04 13:19:00,
2013-01-04 08:20:00,31.2,19.3,30.16,WSW,242,3.0,4.0,61,0.00,,---,0.00,VWS V14.01,2013-01-04 13:20:00,
2013-01-04 08:22:00,31.3,19.4,30.16,WSW,242,5.0,5.0,61,0.00,,---,0.00,VWS V14.01,2013-01-04 13:22:00,
2013-01-04 08:24:00,31.3,19.4,30.16,West,260,10.0,10.0,61,0.00,,---,0.00,VWS V14.01,2013-01-04 13:24:00,
2013-01-04 08:25:00,31.3,19.4,30.16,NW,304,2.0,4.0,61,0.00,,---,0.00,VWS V14.01,2013-01-04 13:25:00,
2013-01-04 08:27:00,31.5,19.2,30.16,West,273,4.0,10.0,60,0.00,,---,0.00,VWS V14.01,2013-01-04 13:27:00,
2013-01-04 08:29:00,31.5,19.6,30.16,WNW,286,0.0,3.0,61,0.00,,---,0.00,VWS V14.01,2013-01-04 13:29:00,
2013-01-04 08:30:00,31.6,19.7,30.16,West,265,3.0,3.0,61,0.00,,---,0.00,VWS V14.01,2013-01-04 13:30:00,
2013-01-04 08:32:00,31.8,19.9,30.16,West,273,1.0,6.0,61,0.00,,---,0.00,VWS V14.01,2013-01-04 13:32:00,
2013-01-04 08:34:00,31.9,19.6,30.16,WNW,287,7.0,9.0,60,0.00,,---,0.00,VWS V14.01,2013-01-04 13:34:00,
2013-01-04 08:35:00,31.9,19.6,30.16,West,265,2.0,10.0,60,0.00,,---,0.00,VWS V14.01,2013-01-04 13:35:00,
2013-01-04 08:37:00,32.2,19.9,30.16,NW,310,4.0,7.0,60,0.00,,---,0.00,VWS V14.01,2013-01-04 13:37:00,
2013-01-04 08:39:00,32.4,19.7,30.16,WNW,300,2.0,4.0,59,0.00,,---,0.00,VWS V14.01,2013-01-04 13:39:00,
2013-01-04 08:40:00,32.4,19.7,30.16,West,269,4.0,4.0,59,0.00,,---,0.00,VWS V14.01,2013-01-04 13:40:00,
2013-01-04 08:42:00,32.5,19.4,30.16,West,267,2.0,5.0,58,0.00,,---,0.00,VWS V14.01,2013-01-04 13:42:00,
2013-01-04 08:44:00,32.7,19.6,30.16,West,268,11.0,16.0,58,0.00,,---,0.00,VWS V14.01,2013-01-04 13:44:00,
2013-01-04 08:45:00,32.7,19.6,30.16,WNW,283,6.0,9.0,58,0.00,,---,0.00,VWS V14.01,2013-01-04 13:45:00,
2013-01-04 08:47:00,32.8,19.7,30.16,WNW,290,5.0,8.0,58,0.00,,---,0.00,VWS V14.01,2013-01-04 13:47:00,
2013-01-04 08:49:00,32.8,19.7,30.16,WSW,246,0.0,3.0,58,0.00,,---,0.00,VWS V14.01,2013-01-04 13:49:00,
2013-01-04 08:50:00,32.9,19.8,30.16,WNW,294,5.0,5.0,58,0.00,,---,0.00,VWS V14.01,2013-01-04 13:50:00,
2013-01-04 08:52:00,32.9,19.8,30.16,West,271,3.0,5.0,58,0.00,,---,0.00,VWS V14.01,2013-01-04 13:52:00,
2013-01-04 08:54:00,32.9,19.8,30.16,SSW,207,4.0,4.0,58,0.00,,---,0.00,VWS V14.01,2013-01-04 13:54:00,
2013-01-04 08:55:00,32.9,19.8,30.16,SSW,207,1.0,4.0,58,0.00,,---,0.00,VWS V14.01,2013-01-04 13:55:00,
2013-01-04 08:57:00,33.1,19.9,30.16,WNW,290,1.0,3.0,58,0.00,,---,0.00,VWS V14.01,2013-01-04 13:57:00,
2013-01-04 09:00:00,33.1,19.9,30.16,WNW,286,0.0,0.0,58,0.00,,---,0.00,VWS V14.01,2013-01-04 14:00:00,
2013-01-04 09:02:00,33.1,19.5,30.16,West,263,9.0,9.0,57,0.00,,---,0.00,VWS V14.01,2013-01-04 14:02:00,
2013-01-04 09:05:00,33.2,20.0,30.16,West,261,4.0,11.0,58,0.00,,---,0.00,VWS V14.01,2013-01-04 14:05:00,
2013-01-04 09:07:00,33.2,19.6,30.16,South,178,5.0,5.0,57,0.00,,---,0.00,VWS V14.01,2013-01-04 14:07:00,
2013-01-04 09:10:00,33.4,20.2,30.16,SSW,207,0.0,1.0,58,0.00,,---,0.00,VWS V14.01,2013-01-04 14:10:00,
2013-01-04 09:12:00,33.4,19.8,30.16,NNW,336,4.0,10.0,57,0.00,,---,0.00,VWS V14.01,2013-01-04 14:12:00,
2013-01-04 09:15:00,33.4,19.8,30.16,WSW,254,5.0,7.0,57,0.00,,---,0.00,VWS V14.01,2013-01-04 14:15:00,
2013-01-04 09:17:00,33.4,19.8,30.16,SSE,159,0.0,4.0,57,0.00,,---,0.00,VWS V14.01,2013-01-04 14:17:00,
2013-01-04 09:18:00,33.4,19.8,30.16,SSE,159,0.0,0.0,57,0.00,,---,0.00,VWS V14.01,2013-01-04 14:18:00,
2013-01-04 09:20:00,33.5,19.9,30.16,WSW,238,3.0,6.0,57,0.00,,---,0.00,VWS V14.01,2013-01-04 14:20:00,
2013-01-04 09:22:00,33.5,20.3,30.16,WSW,237,1.0,4.0,58,0.00,,---,0.00,VWS V14.01,2013-01-04 14:22:00,
2013-01-04 09:23:00,33.5,20.3,30.16,WSW,237,2.0,5.0,58,0.00,,---,0.00,VWS V14.01,2013-01-04 14:23:00,
2013-01-04 09:25:00,33.5,19.9,30.16,West,265,6.0,6.0,57,0.00,,---,0.00,VWS V14.01,2013-01-04 14:25:00,
2013-01-04 09:27:00,33.8,20.6,30.16,West,277,0.0,4.0,58,0.00,,---,0.00,VWS V14.01,2013-01-04 14:27:00,
2013-01-04 09:28:00,34.0,20.4,30.16,WNW,295,0.0,4.0,57,0.00,,---,0.00,VWS V14.01,2013-01-04 14:28:00,
2013-01-04 09:30:00,34.1,20.5,30.16,WNW,283,5.0,10.0,57,0.00,,---,0.00,VWS V14.01,2013-01-04 14:30:00,
2013-01-04 09:32:00,34.4,20.3,30.16,West,279,0.0,2.0,56,0.00,,---,0.00,VWS V14.01,2013-01-04 14:32:00,
2013-01-04 09:33:00,34.6,20.5,30.16,West,279,1.0,1.0,56,0.00,,---,0.00,VWS V14.01,2013-01-04 14:33:00,
2013-01-04 09:35:00,34.7,20.6,30.16,SSW,205,6.0,6.0,56,0.00,,---,0.00,VWS V14.01,2013-01-04 14:35:00,
2013-01-04 09:37:00,35.2,21.1,30.16,SW,221,6.0,9.0,56,0.00,,---,0.00,VWS V14.01,2013-01-04 14:37:00,
2013-01-04 09:38:00,35.3,21.2,30.16,SW,221,1.0,9.0,56,0.00,,---,0.00,VWS V14.01,2013-01-04 14:38:00,
2013-01-04 09:40:00,35.6,20.2,30.16,SW,232,1.0,4.0,53,0.00,,---,0.00,VWS V14.01,2013-01-04 14:40:00,
2013-01-04 09:43:00,36.0,21.0,30.16,WSW,257,10.0,10.0,54,0.00,,---,0.00,VWS V14.01,2013-01-04 14:43:00,
2013-01-04 09:45:00,36.3,20.4,30.16,West,276,5.0,7.0,52,0.00,,---,0.00,VWS V14.01,2013-01-04 14:45:00,
2013-01-04 09:48:00,36.8,20.8,30.16,WSW,245,5.0,9.0,52,0.00,,---,0.00,VWS V14.01,2013-01-04 14:48:00,
2013-01-04 09:50:00,37.2,20.8,30.16,NNW,329,13.0,13.0,51,0.00,,---,0.00,VWS V14.01,2013-01-04 14:50:00,
2013-01-04 09:53:00,37.5,20.6,30.16,WNW,301,1.0,6.0,50,0.00,,---,0.00,VWS V14.01,2013-01-04 14:53:00,
2013-01-04 09:55:00,37.8,20.8,30.16,SSW,212,7.0,11.0,50,0.00,,---,0.00,VWS V14.01,2013-01-04 14:55:00,
2013-01-04 09:58:00,37.9,20.5,30.16,WNW,298,3.0,4.0,49,0.00,,---,0.00,VWS V14.01,2013-01-04 14:58:00,
2013-01-04 10:00:00,38.2,21.2,30.16,West,271,5.0,15.0,50,0.00,,---,0.00,VWS V14.01,2013-01-04 15:00:00,
2013-01-04 10:03:00,38.5,21.0,30.16,WSW,238,5.0,8.0,49,0.00,,---,0.00,VWS V14.01,2013-01-04 15:03:00,
2013-01-04 10:05:00,38.5,20.5,30.16,WNW,284,4.0,15.0,48,0.00,,---,0.00,VWS V14.01,2013-01-04 15:05:00,
2013-01-04 10:08:00,38.8,20.8,30.16,SW,236,4.0,5.0,48,0.00,,---,0.00,VWS V14.01,2013-01-04 15:08:00,
2013-01-04 10:10:00,38.9,20.9,30.16,SW,222,2.0,2.0,48,0.00,,---,0.00,VWS V14.01,2013-01-04 15:10:00,
2013-01-04 10:11:00,38.9,21.4,30.16,WSW,239,6.0,7.0,49,0.00,,---,0.00,VWS V14.01,2013-01-04 15:11:00,
2013-01-04 10:13:00,39.2,20.7,30.16,WNW,284,2.0,14.0,47,0.00,,---,0.00,VWS V14.01,2013-01-04 15:13:00,
2013-01-04 10:15:00,39.3,21.3,30.16,WNW,294,5.0,13.0,48,0.00,,---,0.00,VWS V14.01,2013-01-04 15:15:00,
2013-01-04 10:16:00,39.3,20.8,30.16,WSW,252,2.0,6.0,47,0.00,,---,0.00,VWS V14.01,2013-01-04 15:16:00,
2013-01-04 10:18:00,39.5,21.5,30.17,SW,221,0.0,2.0,48,0.00,,---,0.00,VWS V14.01,2013-01-04 15:18:00,
2013-01-04 10:20:00,39.5,21.0,30.17,West,279,12.0,18.0,47,0.00,,---,0.00,VWS V14.01,2013-01-04 15:20:00,
2013-01-04 10:21:00,39.5,21.0,30.17,WNW,285,7.0,12.0,47,0.00,,---,0.00,VWS V14.01,2013-01-04 15:21:00,
2013-01-04 10:23:00,39.5,21.0,30.17,West,261,1.0,4.0,47,0.00,,---,0.00,VWS V14.01,2013-01-04 15:23:00,
2013-01-04 10:25:00,39.5,21.0,30.17,West,281,6.0,12.0,47,0.00,,---,0.00,VWS V14.01,2013-01-04 15:25:00,
2013-01-04 10:26:00,39.6,21.0,30.17,SSW,209,7.0,7.0,47,0.00,,---,0.00,VWS V14.01,2013-01-04 15:26:00,
2013-01-04 10:28:00,39.6,21.0,30.17,WSW,254,7.0,17.0,47,0.00,,---,0.00,VWS V14.01,2013-01-04 15:28:00,
2013-01-04 10:30:00,39.6,21.0,30.17,West,270,11.0,11.0,47,0.00,,---,0.00,VWS V14.01,2013-01-04 15:30:00,
2013-01-04 10:31:00,39.6,21.0,30.17,West,279,12.0,14.0,47,0.00,,---,0.00,VWS V14.01,2013-01-04 15:31:00,
2013-01-04 10:33:00,39.5,20.5,30.17,West,264,4.0,5.0,46,0.00,,---,0.00,VWS V14.01,2013-01-04 15:33:00,
2013-01-04 10:35:00,39.5,21.0,30.17,WNW,297,8.0,8.0,47,0.00,,---,0.00,VWS V14.01,2013-01-04 15:35:00,
2013-01-04 10:36:00,39.5,21.0,30.17,WSW,237,10.0,12.0,47,0.00,,---,0.00,VWS V14.01,2013-01-04 15:36:00,
2013-01-04 10:38:00,39.3,20.8,30.17,WSW,248,3.0,6.0,47,0.00,,---,0.00,VWS V14.01,2013-01-04 15:38:00,
2013-01-04 10:40:00,39.3,20.8,30.17,WNW,291,7.0,10.0,47,0.00,,---,0.00,VWS V14.01,2013-01-04 15:40:00,
2013-01-04 10:41:00,39.3,21.3,30.17,WNW,292,10.0,10.0,48,0.00,,---,0.00,VWS V14.01,2013-01-04 15:41:00,
2013-01-04 10:43:00,39.3,20.8,30.17,WNW,285,8.0,12.0,47,0.00,,---,0.00,VWS V14.01,2013-01-04 15:43:00,
2013-01-04 10:44:00,39.3,20.8,30.17,West,267,4.0,5.0,47,0.00,,---,0.00,VWS V14.01,2013-01-04 15:44:00,
2013-01-04 10:45:00,39.3,20.8,30.17,West,261,3.0,4.0,47,0.00,,---,0.00,VWS V14.01,2013-01-04 15:45:00,
2013-01-04 10:46:00,39.2,20.7,30.17,WNW,288,1.0,5.0,47,0.00,,---,0.00,VWS V14.01,2013-01-04 15:46:00,
2013-01-04 10:48:00,39.2,21.2,30.16,North,360,7.0,11.0,48,0.00,,---,0.00,VWS V14.01,2013-01-04 15:48:00,
2013-01-04 10:49:00,39.2,21.2,30.16,NNW,341,1.0,1.0,48,0.00,,---,0.00,VWS V14.01,2013-01-04 15:49:00,
2013-01-04 10:50:00,39.2,20.7,30.16,NW,304,4.0,12.0,47,0.00,,---,0.00,VWS V14.01,2013-01-04 15:50:00,
2013-01-04 10:51:00,39.1,20.6,30.16,West,270,6.0,12.0,47,0.00,,---,0.00,VWS V14.01,2013-01-04 15:51:00,
2013-01-04 10:53:00,39.1,20.6,30.16,WSW,248,9.0,14.0,47,0.00,,---,0.00,VWS V14.01,2013-01-04 15:53:00,
2013-01-04 10:54:00,39.1,20.6,30.16,WSW,245,0.0,2.0,47,0.00,,---,0.00,VWS V14.01,2013-01-04 15:54:00,
2013-01-04 10:55:00,39.1,21.1,30.16,West,280,3.0,5.0,48,0.00,,---,0.00,VWS V14.01,2013-01-04 15:55:00,
2013-01-04 10:56:00,39.1,21.1,30.16,South,181,3.0,7.0,48,0.00,,---,0.00,VWS V14.01,2013-01-04 15:56:00,
2013-01-04 10:58:00,39.1,21.1,30.16,West,269,0.0,7.0,48,0.00,,---,0.00,VWS V14.01,2013-01-04 15:58:00,
2013-01-04 10:59:00,39.1,21.1,30.16,West,275,6.0,6.0,48,0.00,,---,0.00,VWS V14.01,2013-01-04 15:59:00,
2013-01-04 11:00:00,39.2,21.2,30.16,WSW,255,5.0,6.0,48,0.00,,---,0.00,VWS V14.01,2013-01-04 16:00:00,
2013-01-04 11:01:00,39.3,21.3,30.16,WSW,248,7.0,10.0,48,0.00,,---,0.00,VWS V14.01,2013-01-04 16:01:00,
2013-01-04 11:03:00,39.5,21.5,30.16,West,272,10.0,14.0,48,0.00,,---,0.00,VWS V14.01,2013-01-04 16:03:00,
2013-01-04 11:04:00,39.5,21.5,30.16,West,263,6.0,12.0,48,0.00,,---,0.00,VWS V14.01,2013-01-04 16:04:00,
2013-01-04 11:05:00,39.6,21.0,30.16,WNW,292,5.0,5.0,47,0.00,,---,0.00,VWS V14.01,2013-01-04 16:05:00,
2013-01-04 11:06:00,39.6,21.0,30.16,NW,305,9.0,11.0,47,0.00,,---,0.00,VWS V14.01,2013-01-04 16:06:00,
2013-01-04 11:08:00,39.6,21.0,30.16,West,260,5.0,13.0,47,0.00,,---,0.00,VWS V14.01,2013-01-04 16:08:00,
2013-01-04 11:09:00,39.8,21.2,30.16,West,264,8.0,8.0,47,0.00,,---,0.00,VWS V14.01,2013-01-04 16:09:00,
2013-01-04 11:10:00,39.8,21.2,30.16,WNW,286,7.0,9.0,47,0.00,,---,0.00,VWS V14.01,2013-01-04 16:10:00,
2013-01-04 11:11:00,39.8,21.2,30.16,West,275,4.0,7.0,47,0.00,,---,0.00,VWS V14.01,2013-01-04 16:11:00,
2013-01-04 11:13:00,39.9,20.8,30.16,WSW,242,6.0,12.0,46,0.00,,---,0.00,VWS V14.01,2013-01-04 16:13:00,
2013-01-04 11:14:00,39.9,21.3,30.16,WSW,254,5.0,7.0,47,0.00,,---,0.00,VWS V14.01,2013-01-04 16:14:00,
2013-01-04 11:15:00,39.9,21.3,30.16,West,259,3.0,4.0,47,0.00,,---,0.00,VWS V14.01,2013-01-04 16:15:00,
2013-01-04 11:16:00,39.9,21.3,30.16,WSW,257,3.0,9.0,47,0.00,,---,0.00,VWS V14.01,2013-01-04 16:16:00,
2013-01-04 11:18:00,39.9,21.3,30.16,West,269,5.0,11.0,47,0.00,,---,0.00,VWS V14.01,2013-01-04 16:18:00,
2013-01-04 11:19:00,39.9,20.8,30.16,WSW,238,5.0,13.0,46,0.00,,---,0.00,VWS V14.01,2013-01-04 16:19:00,
2013-01-04 11:21:00,39.9,20.8,30.16,WSW,256,3.0,5.0,46,0.00,,---,0.00,VWS V14.01,2013-01-04 16:21:00,
2013-01-04 11:23:00,39.6,20.5,30.16,West,275,4.0,7.0,46,0.00,,---,0.00,VWS V14.01,2013-01-04 16:23:00,
2013-01-04 11:24:00,39.6,20.5,30.16,SW,219,0.0,10.0,46,0.00,,---,0.00,VWS V14.01,2013-01-04 16:24:00,
2013-01-04 11:26:00,39.6,21.0,30.16,WSW,246,9.0,13.0,47,0.00,,---,0.00,VWS V14.01,2013-01-04 16:26:00,
2013-01-04 11:28:00,39.6,20.5,30.16,WSW,253,2.0,13.0,46,0.00,,---,0.00,VWS V14.01,2013-01-04 16:28:00,
2013-01-04 11:29:00,39.6,21.0,30.16,WSW,253,3.0,4.0,47,0.00,,---,0.00,VWS V14.01,2013-01-04 16:29:00,
2013-01-04 11:31:00,39.6,21.0,30.16,WNW,291,11.0,11.0,47,0.00,,---,0.00,VWS V14.01,2013-01-04 16:31:00,
2013-01-04 11:32:00,39.6,21.5,30.14,WNW,282,9.0,9.0,48,0.00,,---,0.00,VWS V14.01,2013-01-04 16:32:00,
2013-01-04 11:33:00,39.8,21.2,30.14,West,271,0.0,5.0,47,0.00,,---,0.00,VWS V14.01,2013-01-04 16:33:00,
2013-01-04 11:34:00,39.8,21.2,30.14,West,272,2.0,2.0,47,0.00,,---,0.00,VWS V14.01,2013-01-04 16:34:00,
2013-01-04 11:36:00,39.9,21.8,30.14,WSW,244,2.0,2.0,48,0.00,,---,0.00,VWS V14.01,2013-01-04 16:36:00,
2013-01-04 11:37:00,39.9,21.3,30.14,WNW,284,4.0,4.0,47,0.00,,---,0.00,VWS V14.01,2013-01-04 16:37:00,
2013-01-04 11:38:00,40.1,21.0,30.14,West,273,4.0,10.0,46,0.00,,---,0.00,VWS V14.01,2013-01-04 16:38:00,
2013-01-04 11:39:00,40.1,21.0,30.14,West,271,1.0,5.0,46,0.00,,---,0.00,VWS V14.01,2013-01-04 16:39:00,
2013-01-04 11:41:00,40.2,21.6,30.14,WSW,255,6.0,6.0,47,0.00,,---,0.00,VWS V14.01,2013-01-04 16:41:00,
2013-01-04 11:42:00,40.2,21.1,30.14,West,277,2.0,4.0,46,0.00,,---,0.00,VWS V14.01,2013-01-04 16:42:00,
2013-01-04 11:43:00,40.3,21.2,30.14,West,275,0.0,3.0,46,0.00,,---,0.00,VWS V14.01,2013-01-04 16:43:00,
2013-01-04 11:44:00,40.3,21.2,30.14,NW,318,1.0,4.0,46,0.00,,---,0.00,VWS V14.01,2013-01-04 16:44:00,
2013-01-04 11:46:00,40.5,21.4,30.14,West,261,10.0,15.0,46,0.00,,---,0.00,VWS V14.01,2013-01-04 16:46:00,
2013-01-04 11:47:00,40.5,20.9,30.14,West,267,8.0,14.0,45,0.00,,---,0.00,VWS V14.01,2013-01-04 16:47:00,
2013-01-04 11:48:00,40.5,20.9,30.14,WSW,246,4.0,14.0,45,0.00,,---,0.00,VWS V14.01,2013-01-04 16:48:00,
2013-01-04 11:49:00,40.5,20.3,30.14,NNW,327,3.0,12.0,44,0.00,,---,0.00,VWS V14.01,2013-01-04 16:49:00,
2013-01-04 11:51:00,40.5,20.3,30.14,NNW,342,4.0,16.0,44,0.00,,---,0.00,VWS V14.01,2013-01-04 16:51:00,
2013-01-04 11:52:00,40.3,20.1,30.14,NNW,346,6.0,11.0,44,0.00,,---,0.00,VWS V14.01,2013-01-04 16:52:00,
2013-01-04 11:53:00,40.2,20.6,30.14,WNW,284,6.0,13.0,45,0.00,,---,0.00,VWS V14.01,2013-01-04 16:53:00,
2013-01-04 11:54:00,40.1,20.5,30.14,NW,305,1.0,6.0,45,0.00,,---,0.00,VWS V14.01,2013-01-04 16:54:00,
2013-01-04 11:56:00,40.1,20.5,30.14,WNW,297,0.0,0.0,45,0.00,,---,0.00,VWS V14.01,2013-01-04 16:56:00,
2013-01-04 11:57:00,39.9,20.3,30.14,WNW,286,2.0,5.0,45,0.00,,---,0.00,VWS V14.01,2013-01-04 16:57:00,
2013-01-04 11:58:00,39.9,20.8,30.14,NW,307,1.0,6.0,46,0.00,,---,0.00,VWS V14.01,2013-01-04 16:58:00,
2013-01-04 12:00:00,39.9,20.8,30.14,WNW,301,6.0,6.0,46,0.00,,---,0.00,VWS V14.01,2013-01-04 17:00:00,
2013-01-04 12:01:00,39.9,20.3,30.14,NW,305,2.0,3.0,45,0.00,,---,0.00,VWS V14.01,2013-01-04 17:01:00,
2013-01-04 12:02:00,39.9,20.3,30.13,North,11,0.0,2.0,45,0.00,,---,0.00,VWS V14.01,2013-01-04 17:02:00,
2013-01-04 12:04:00,39.9,20.3,30.13,West,279,2.0,4.0,45,0.00,,---,0.00,VWS V14.01,2013-01-04 17:04:00,
2013-01-04 12:05:00,39.9,20.8,30.13,NW,306,3.0,14.0,46,0.00,,---,0.00,VWS V14.01,2013-01-04 17:05:00,
2013-01-04 12:06:00,39.9,20.8,30.13,WSW,250,2.0,7.0,46,0.00,,---,0.00,VWS V14.01,2013-01-04 17:06:00,
2013-01-04 12:07:00,39.9,20.8,30.13,WNW,288,11.0,13.0,46,0.00,,---,0.00,VWS V14.01,2013-01-04 17:07:00,
2013-01-04 12:09:00,39.8,21.2,30.13,WSW,249,0.0,2.0,47,0.00,,---,0.00,VWS V14.01,2013-01-04 17:09:00,
2013-01-04 12:10:00,39.8,20.7,30.13,ENE,73,4.0,7.0,46,0.00,,---,0.00,VWS V14.01,2013-01-04 17:10:00,
2013-01-04 12:11:00,39.8,21.2,30.13,West,267,4.0,4.0,47,0.00,,---,0.00,VWS V14.01,2013-01-04 17:11:00,
2013-01-04 12:12:00,39.8,20.7,30.13,North,360,5.0,11.0,46,0.00,,---,0.00,VWS V14.01,2013-01-04 17:12:00,
2013-01-04 12:14:00,39.8,21.2,30.13,SW,227,5.0,5.0,47,0.00,,---,0.00,VWS V14.01,2013-01-04 17:14:00,
2013-01-04 12:15:00,39.8,21.2,30.13,WNW,286,1.0,4.0,47,0.00,,---,0.00,VWS V14.01,2013-01-04 17:15:00,
2013-01-04 12:16:00,39.9,20.8,30.13,NW,307,11.0,11.0,46,0.00,,---,0.00,VWS V14.01,2013-01-04 17:16:00,
2013-01-04 12:17:00,39.9,20.8,30.12,WNW,296,6.0,12.0,46,0.00,,---,0.00,VWS V14.01,2013-01-04 17:17:00,
2013-01-04 12:19:00,39.9,20.8,30.12,WSW,238,3.0,3.0,46,0.00,,---,0.00,VWS V14.01,2013-01-04 17:19:00,
2013-01-04 12:20:00,39.9,20.8,30.12,WSW,238,4.0,9.0,46,0.00,,---,0.00,VWS V14.01,2013-01-04 17:20:00,
2013-01-04 12:21:00,39.9,20.8,30.12,WNW,292,13.0,13.0,46,0.00,,---,0.00,VWS V14.01,2013-01-04 17:21:00,
2013-01-04 12:22:00,40.1,21.0,30.12,WSW,250,1.0,15.0,46,0.00,,---,0.00,VWS V14.01,2013-01-04 17:22:00,
2013-01-04 12:24:00,40.1,21.0,30.12,West,271,3.0,10.0,46,0.00,,---,0.00,VWS V14.01,2013-01-04 17:24:00,
2013-01-04 12:25:00,40.1,21.5,30.12,NNW,336,1.0,13.0,47,0.00,,---,0.00,VWS V14.01,2013-01-04 17:25:00,
2013-01-04 12:26:00,40.1,21.0,30.12,WNW,285,1.0,7.0,46,0.00,,---,0.00,VWS V14.01,2013-01-04 17:26:00,
2013-01-04 12:27:00,40.1,21.5,30.12,WSW,257,4.0,11.0,47,0.00,,---,0.00,VWS V14.01,2013-01-04 17:27:00,
2013-01-04 12:29:00,40.1,21.0,30.12,West,276,3.0,3.0,46,0.00,,---,0.00,VWS V14.01,2013-01-04 17:29:00,
2013-01-04 12:30:00,40.1,21.0,30.12,WNW,301,5.0,8.0,46,0.00,,---,0.00,VWS V14.01,2013-01-04 17:30:00,
2013-01-04 12:31:00,40.1,21.0,30.12,SSW,212,13.0,13.0,46,0.00,,---,0.00,VWS V14.01,2013-01-04 17:31:00,
2013-01-04 12:32:00,40.1,21.0,30.11,West,275,12.0,13.0,46,0.00,,---,0.00,VWS V14.01,2013-01-04 17:32:00,
2013-01-04 12:34:00,40.1,21.5,30.11,WSW,246,0.0,7.0,47,0.00,,---,0.00,VWS V14.01,2013-01-04 17:34:00,
2013-01-04 12:35:00,39.9,20.8,30.11,SW,236,12.0,12.0,46,0.00,,---,0.00,VWS V14.01,2013-01-04 17:35:00,
2013-01-04 12:37:00,39.9,20.8,30.11,SW,223,6.0,6.0,46,0.00,,---,0.00,VWS V14.01,2013-01-04 17:37:00,
2013-01-04 12:39:00,39.9,20.8,30.11,SW,221,14.0,18.0,46,0.00,,---,0.00,VWS V14.01,2013-01-04 17:39:00,
2013-01-04 12:40:00,40.1,21.0,30.11,WSW,256,3.0,14.0,46,0.00,,---,0.00,VWS V14.01,2013-01-04 17:40:00,
2013-01-04 12:42:00,40.1,21.0,30.11,SW,236,9.0,9.0,46,0.00,,---,0.00,VWS V14.01,2013-01-04 17:42:00,
2013-01-04 12:44:00,40.1,20.5,30.11,WNW,286,0.0,0.0,45,0.00,,---,0.00,VWS V14.01,2013-01-04 17:44:00,
2013-01-04 12:45:00,40.1,21.0,30.11,WSW,240,6.0,6.0,46,0.00,,---,0.00,VWS V14.01,2013-01-04 17:45:00,
2013-01-04 12:47:00,40.2,21.1,30.11,WSW,248,3.0,6.0,46,0.00,,---,0.00,VWS V14.01,2013-01-04 17:47:00,
2013-01-04 12:49:00,40.3,20.7,30.11,West,265,2.0,9.0,45,0.00,,---,0.00,VWS V14.01,2013-01-04 17:49:00,
2013-01-04 12:50:00,40.3,20.7,30.11,NNW,332,3.0,4.0,45,0.00,,---,0.00,VWS V14.01,2013-01-04 17:50:00,
2013-01-04 12:52:00,40.3,20.7,30.11,North,350,3.0,4.0,45,0.00,,---,0.00,VWS V14.01,2013-01-04 17:52:00,
2013-01-04 12:54:00,40.5,21.4,30.11,NW,307,3.0,7.0,46,0.00,,---,0.00,VWS V14.01,2013-01-04 17:54:00,
2013-01-04 12:55:00,40.5,21.4,30.11,SW,224,14.0,21.0,46,0.00,,---,0.00,VWS V14.01,2013-01-04 17:55:00,
2013-01-04 12:57:00,40.5,20.9,30.11,WSW,246,14.0,16.0,45,0.00,,---,0.00,VWS V14.01,2013-01-04 17:57:00,
2013-01-04 12:59:00,40.5,20.9,30.11,WSW,244,2.0,6.0,45,0.00,,---,0.00,VWS V14.01,2013-01-04 17:59:00,
2013-01-04 13:00:00,40.5,20.9,30.11,SW,229,7.0,11.0,45,0.00,,---,0.00,VWS V14.01,2013-01-04 18:00:00,
2013-01-04 13:02:00,40.5,20.9,30.11,WNW,295,3.0,3.0,45,0.00,,---,0.00,VWS V14.01,2013-01-04 18:02:00,
2013-01-04 13:04:00,40.6,20.9,30.11,SW,214,6.0,11.0,45,0.00,,---,0.00,VWS V14.01,2013-01-04 18:04:00,
2013-01-04 13:05:00,40.6,20.9,30.11,WSW,243,7.0,7.0,45,0.00,,---,0.00,VWS V14.01,2013-01-04 18:05:00,
2013-01-04 13:07:00,40.6,20.9,30.11,WSW,251,6.0,11.0,45,0.00,,---,0.00,VWS V14.01,2013-01-04 18:07:00,
2013-01-04 13:09:00,40.6,20.9,30.11,NNW,340,0.0,2.0,45,0.00,,---,0.00,VWS V14.01,2013-01-04 18:09:00,
2013-01-04 13:10:00,40.6,20.9,30.11,NNW,334,6.0,15.0,45,0.00,,---,0.00,VWS V14.01,2013-01-04 18:10:00,
2013-01-04 13:12:00,40.8,21.1,30.11,WNW,289,0.0,2.0,45,0.00,,---,0.00,VWS V14.01,2013-01-04 18:12:00,
2013-01-04 13:14:00,40.8,21.1,30.11,NW,308,7.0,7.0,45,0.00,,---,0.00,VWS V14.01,2013-01-04 18:14:00,
2013-01-04 13:15:00,40.8,21.1,30.11,NW,324,5.0,9.0,45,0.00,,---,0.00,VWS V14.01,2013-01-04 18:15:00,
2013-01-04 13:17:00,40.8,21.1,30.09,WNW,290,4.0,10.0,45,0.00,,---,0.00,VWS V14.01,2013-01-04 18:17:00,
2013-01-04 13:19:00,40.6,20.9,30.09,West,271,14.0,14.0,45,0.00,,---,0.00,VWS V14.01,2013-01-04 18:19:00,
2013-01-04 13:20:00,40.6,20.9,30.09,WSW,248,6.0,11.0,45,0.00,,---,0.00,VWS V14.01,2013-01-04 18:20:00,
2013-01-04 13:22:00,40.6,20.9,30.09,WNW,284,4.0,4.0,45,0.00,,---,0.00,VWS V14.01,2013-01-04 18:22:00,
2013-01-04 13:24:00,40.8,21.1,30.09,WSW,256,4.0,10.0,45,0.00,,---,0.00,VWS V14.01,2013-01-04 18:24:00,
2013-01-04 13:25:00,40.6,20.9,30.09,WNW,298,3.0,4.0,45,0.00,,---,0.00,VWS V14.01,2013-01-04 18:25:00,
2013-01-04 13:27:00,40.6,20.9,30.09,WSW,258,5.0,9.0,45,0.00,,---,0.00,VWS V14.01,2013-01-04 18:27:00,
2013-01-04 13:29:00,40.5,20.9,30.09,WNW,296,10.0,10.0,45,0.00,,---,0.00,VWS V14.01,2013-01-04 18:29:00,
2013-01-04 13:30:00,40.5,20.9,30.09,West,271,9.0,14.0,45,0.00,,---,0.00,VWS V14.01,2013-01-04 18:30:00,
2013-01-04 13:32:00,40.5,20.9,30.09,West,269,6.0,10.0,45,0.00,,---,0.00,VWS V14.01,2013-01-04 18:32:00,
2013-01-04 13:34:00,40.6,21.5,30.09,WNW,302,3.0,11.0,46,0.00,,---,0.00,VWS V14.01,2013-01-04 18:34:00,
2013-01-04 13:35:00,40.6,20.9,30.09,WSW,242,1.0,3.0,45,0.00,,---,0.00,VWS V14.01,2013-01-04 18:35:00,
2013-01-04 13:37:00,40.6,20.9,30.09,WNW,290,3.0,12.0,45,0.00,,---,0.00,VWS V14.01,2013-01-04 18:37:00,
2013-01-04 13:39:00,40.8,20.6,30.09,WSW,254,11.0,17.0,44,0.00,,---,0.00,VWS V14.01,2013-01-04 18:39:00,
2013-01-04 13:41:00,40.8,20.6,30.09,WNW,292,2.0,2.0,44,0.00,,---,0.00,VWS V14.01,2013-01-04 18:41:00,
2013-01-04 13:42:00,40.8,20.6,30.09,SSW,207,3.0,3.0,44,0.00,,---,0.00,VWS V14.01,2013-01-04 18:42:00,
2013-01-04 13:44:00,40.8,21.1,30.09,WSW,253,15.0,19.0,45,0.00,,---,0.00,VWS V14.01,2013-01-04 18:44:00,
2013-01-04 13:45:00,40.9,20.7,30.09,NNW,331,5.0,7.0,44,0.00,,---,0.00,VWS V14.01,2013-01-04 18:45:00,
2013-01-04 13:47:00,40.9,20.7,30.09,WSW,248,9.0,18.0,44,0.00,,---,0.00,VWS V14.01,2013-01-04 18:47:00,
2013-01-04 13:48:00,40.9,20.7,30.09,West,259,5.0,12.0,44,0.00,,---,0.00,VWS V14.01,2013-01-04 18:48:00,
2013-01-04 13:49:00,40.9,20.7,30.09,West,269,3.0,9.0,44,0.00,,---,0.00,VWS V14.01,2013-01-04 18:49:00,
2013-01-04 13:51:00,40.9,20.7,30.09,WSW,249,3.0,7.0,44,0.00,,---,0.00,VWS V14.01,2013-01-04 18:51:00,
2013-01-04 13:52:00,40.9,21.2,30.09,West,271,5.0,9.0,45,0.00,,---,0.00,VWS V14.01,2013-01-04 18:52:00,
2013-01-04 13:53:00,40.9,20.7,30.09,West,271,3.0,7.0,44,0.00,,---,0.00,VWS V14.01,2013-01-04 18:53:00,
2013-01-04 13:54:00,40.9,20.7,30.09,West,265,6.0,9.0,44,0.00,,---,0.00,VWS V14.01,2013-01-04 18:54:00,
2013-01-04 13:56:00,40.9,20.7,30.09,WNW,294,5.0,7.0,44,0.00,,---,0.00,VWS V14.01,2013-01-04 18:56:00,
2013-01-04 13:57:00,40.9,20.1,30.09,NNW,327,9.0,9.0,43,0.00,,---,0.00,VWS V14.01,2013-01-04 18:57:00,
2013-01-04 13:58:00,40.9,20.1,30.09,WNW,302,14.0,14.0,43,0.00,,---,0.00,VWS V14.01,2013-01-04 18:58:00,
2013-01-04 13:59:00,40.9,20.7,30.09,WNW,285,3.0,7.0,44,0.00,,---,0.00,VWS V14.01,2013-01-04 18:59:00,
2013-01-04 14:01:00,40.9,20.1,30.09,West,265,5.0,7.0,43,0.00,,---,0.00,VWS V14.01,2013-01-04 19:01:00,
2013-01-04 14:02:00,40.9,20.7,30.09,West,281,5.0,17.0,44,0.00,,---,0.00,VWS V14.01,2013-01-04 19:02:00,
2013-01-04 14:03:00,40.9,20.1,30.09,West,260,6.0,10.0,43,0.00,,---,0.00,VWS V14.01,2013-01-04 19:03:00,
2013-01-04 14:04:00,40.9,20.1,30.09,SW,235,9.0,17.0,43,0.00,,---,0.00,VWS V14.01,2013-01-04 19:04:00,
2013-01-04 14:06:00,40.9,20.1,30.09,West,261,4.0,6.0,43,0.00,,---,0.00,VWS V14.01,2013-01-04 19:06:00,
2013-01-04 14:07:00,40.9,20.7,30.09,West,267,4.0,9.0,44,0.00,,---,0.00,VWS V14.01,2013-01-04 19:07:00,
2013-01-04 14:08:00,40.9,20.7,30.09,WSW,248,11.0,12.0,44,0.00,,---,0.00,VWS V14.01,2013-01-04 19:08:00,
2013-01-04 14:09:00,40.9,20.7,30.09,West,267,6.0,10.0,44,0.00,,---,0.00,VWS V14.01,2013-01-04 19:09:00,
2013-01-04 14:11:00,40.9,20.1,30.09,SW,221,4.0,5.0,43,0.00,,---,0.00,VWS V14.01,2013-01-04 19:11:00,
2013-01-04 14:12:00,40.9,20.7,30.09,SSW,213,11.0,11.0,44,0.00,,---,0.00,VWS V14.01,2013-01-04 19:12:00,
2013-01-04 14:13:00,41.1,20.9,30.09,WSW,250,11.0,14.0,44,0.00,,---,0.00,VWS V14.01,2013-01-04 19:13:00,
2013-01-04 14:14:00,41.1,20.3,30.09,WSW,242,13.0,13.0,43,0.00,,---,0.00,VWS V14.01,2013-01-04 19:14:00,
2013-01-04 14:16:00,41.1,19.8,30.09,West,263,10.0,11.0,42,0.00,,---,0.00,VWS V14.01,2013-01-04 19:16:00,
2013-01-04 14:17:00,40.9,20.1,30.09,WSW,248,12.0,19.0,43,0.00,,---,0.00,VWS V14.01,2013-01-04 19:17:00,
2013-01-04 14:18:00,40.9,20.1,30.09,WNW,286,9.0,12.0,43,0.00,,---,0.00,VWS V14.01,2013-01-04 19:18:00,
2013-01-04 14:19:00,40.8,19.5,30.09,WSW,244,8.0,16.0,42,0.00,,---,0.00,VWS V14.01,2013-01-04 19:19:00,
2013-01-04 14:21:00,40.8,20.0,30.09,South,190,3.0,7.0,43,0.00,,---,0.00,VWS V14.01,2013-01-04 19:21:00,
2013-01-04 14:23:00,40.6,19.9,30.09,SW,231,6.0,7.0,43,0.00,,---,0.00,VWS V14.01,2013-01-04 19:23:00,
2013-01-04 14:24:00,40.6,19.9,30.09,West,281,5.0,10.0,43,0.00,,---,0.00,VWS V14.01,2013-01-04 19:24:00,
2013-01-04 14:26:00,40.6,20.4,30.09,WNW,292,13.0,13.0,44,0.00,,---,0.00,VWS V14.01,2013-01-04 19:26:00,
2013-01-04 14:28:00,40.5,19.8,30.09,South,173,2.0,2.0,43,0.00,,---,0.00,VWS V14.01,2013-01-04 19:28:00,
2013-01-04 14:29:00,40.5,19.8,30.09,WSW,251,2.0,4.0,43,0.00,,---,0.00,VWS V14.01,2013-01-04 19:29:00,
2013-01-04 14:31:00,40.5,20.3,30.09,WSW,250,0.0,1.0,44,0.00,,---,0.00,VWS V14.01,2013-01-04 19:31:00,
2013-01-04 14:33:00,40.3,20.1,30.09,WSW,252,5.0,5.0,44,0.00,,---,0.00,VWS V14.01,2013-01-04 19:33:00,
2013-01-04 14:34:00,40.3,20.1,30.09,West,267,2.0,6.0,44,0.00,,---,0.00,VWS V14.01,2013-01-04 19:34:00,
2013-01-04 14:36:00,40.3,20.1,30.09,WSW,244,0.0,4.0,44,0.00,,---,0.00,VWS V14.01,2013-01-04 19:36:00,
2013-01-04 14:38:00,40.3,20.1,30.09,SSW,207,3.0,6.0,44,0.00,,---,0.00,VWS V14.01,2013-01-04 19:38:00,
2013-01-04 14:39:00,40.3,19.6,30.09,SW,220,12.0,16.0,43,0.00,,---,0.00,VWS V14.01,2013-01-04 19:39:00,
2013-01-04 14:41:00,40.2,19.5,30.09,NW,323,13.0,16.0,43,0.00,,---,0.00,VWS V14.01,2013-01-04 19:41:00,
2013-01-04 14:43:00,40.2,19.5,30.09,West,261,4.0,5.0,43,0.00,,---,0.00,VWS V14.01,2013-01-04 19:43:00,
2013-01-04 14:44:00,40.1,20.0,30.09,WSW,246,5.0,14.0,44,0.00,,---,0.00,VWS V14.01,2013-01-04 19:44:00,
2013-01-04 14:46:00,39.9,19.2,30.09,West,268,1.0,6.0,43,0.00,,---,0.00,VWS V14.01,2013-01-04 19:46:00,
2013-01-04 14:48:00,39.8,19.7,30.09,WNW,282,9.0,19.0,44,0.00,,---,0.00,VWS V14.01,2013-01-04 19:48:00,
2013-01-04 14:49:00,39.6,19.5,30.09,NW,304,9.0,11.0,44,0.00,,---,0.00,VWS V14.01,2013-01-04 19:49:00,
2013-01-04 14:51:00,39.5,19.4,30.09,West,277,5.0,14.0,44,0.00,,---,0.00,VWS V14.01,2013-01-04 19:51:00,
2013-01-04 14:53:00,39.3,19.8,30.09,North,349,5.0,5.0,45,0.00,,---,0.00,VWS V14.01,2013-01-04 19:53:00,
2013-01-04 14:54:00,39.3,19.8,30.09,West,265,4.0,4.0,45,0.00,,---,0.00,VWS V14.01,2013-01-04 19:54:00,
2013-01-04 14:56:00,39.2,19.7,30.09,WNW,298,0.0,2.0,45,0.00,,---,0.00,VWS V14.01,2013-01-04 19:56:00,
2013-01-04 14:58:00,39.2,19.7,30.09,WNW,300,2.0,3.0,45,0.00,,---,0.00,VWS V14.01,2013-01-04 19:58:00,
2013-01-04 14:59:00,39.1,19.6,30.09,West,265,4.0,4.0,45,0.00,,---,0.00,VWS V14.01,2013-01-04 19:59:00,
2013-01-04 15:01:00,39.1,20.1,30.09,West,265,2.0,6.0,46,0.00,,---,0.00,VWS V14.01,2013-01-04 20:01:00,
2013-01-04 15:03:00,39.1,19.6,30.09,NW,321,0.0,0.0,45,0.00,,---,0.00,VWS V14.01,2013-01-04 20:03:00,
2013-01-04 15:05:00,39.1,20.6,30.09,West,266,3.0,4.0,47,0.00,,---,0.00,VWS V14.01,2013-01-04 20:05:00,
2013-01-04 15:06:00,39.1,20.1,30.09,WSW,240,3.0,6.0,46,0.00,,---,0.00,VWS V14.01,2013-01-04 20:06:00,
2013-01-04 15:08:00,39.1,19.6,30.09,WSW,240,5.0,5.0,45,0.00,,---,0.00,VWS V14.01,2013-01-04 20:08:00,
2013-01-04 15:10:00,39.1,19.6,30.09,WSW,244,1.0,4.0,45,0.00,,---,0.00,VWS V14.01,2013-01-04 20:10:00,
2013-01-04 15:11:00,39.1,19.6,30.09,WSW,238,4.0,4.0,45,0.00,,---,0.00,VWS V14.01,2013-01-04 20:11:00,
2013-01-04 15:13:00,39.1,19.6,30.09,WSW,238,11.0,15.0,45,0.00,,---,0.00,VWS V14.01,2013-01-04 20:13:00,
2013-01-04 15:15:00,39.2,19.7,30.09,WSW,248,0.0,1.0,45,0.00,,---,0.00,VWS V14.01,2013-01-04 20:15:00,
2013-01-04 15:16:00,39.1,19.0,30.09,WSW,254,9.0,10.0,44,0.00,,---,0.00,VWS V14.01,2013-01-04 20:16:00,
2013-01-04 15:18:00,39.1,19.6,30.10,WNW,302,7.0,10.0,45,0.00,,---,0.00,VWS V14.01,2013-01-04 20:18:00,
2013-01-04 15:20:00,39.1,19.6,30.10,West,266,7.0,7.0,45,0.00,,---,0.00,VWS V14.01,2013-01-04 20:20:00,
2013-01-04 15:21:00,38.9,19.4,30.10,WNW,290,6.0,15.0,45,0.00,,---,0.00,VWS V14.01,2013-01-04 20:21:00,
2013-01-04 15:23:00,38.8,19.3,30.10,WSW,239,4.0,7.0,45,0.00,,---,0.00,VWS V14.01,2013-01-04 20:23:00,
2013-01-04 15:25:00,38.8,19.3,30.10,WSW,245,2.0,5.0,45,0.00,,---,0.00,VWS V14.01,2013-01-04 20:25:00,
2013-01-04 15:26:00,38.8,19.3,30.10,WSW,245,0.0,4.0,45,0.00,,---,0.00,VWS V14.01,2013-01-04 20:26:00,
2013-01-04 15:28:00,38.6,19.1,30.10,West,262,7.0,7.0,45,0.00,,---,0.00,VWS V14.01,2013-01-04 20:28:00,
2013-01-04 15:30:00,38.6,19.1,30.10,SW,217,9.0,9.0,45,0.00,,---,0.00,VWS V14.01,2013-01-04 20:30:00,
2013-01-04 15:31:00,38.5,19.0,30.10,WSW,237,4.0,11.0,45,0.00,,---,0.00,VWS V14.01,2013-01-04 20:31:00,
2013-01-04 15:33:00,38.5,19.0,30.10,WSW,252,12.0,12.0,45,0.00,,---,0.00,VWS V14.01,2013-01-04 20:33:00,
2013-01-04 15:35:00,38.3,19.4,30.10,WNW,286,12.0,12.0,46,0.00,,---,0.00,VWS V14.01,2013-01-04 20:35:00,
2013-01-04 15:36:00,38.3,19.4,30.10,NNW,346,2.0,16.0,46,0.00,,---,0.00,VWS V14.01,2013-01-04 20:36:00,
2013-01-04 15:38:00,38.2,19.3,30.10,WSW,251,2.0,9.0,46,0.00,,---,0.00,VWS V14.01,2013-01-04 20:38:00,
2013-01-04 15:40:00,38.0,19.6,30.10,West,262,4.0,6.0,47,0.00,,---,0.00,VWS V14.01,2013-01-04 20:40:00,
2013-01-04 15:41:00,38.0,19.6,30.10,South,184,3.0,9.0,47,0.00,,---,0.00,VWS V14.01,2013-01-04 20:41:00,
2013-01-04 15:43:00,37.9,19.0,30.10,WSW,241,9.0,20.0,46,0.00,,---,0.00,VWS V14.01,2013-01-04 20:43:00,
2013-01-04 15:45:00,37.8,19.4,30.10,WNW,295,3.0,5.0,47,0.00,,---,0.00,VWS V14.01,2013-01-04 20:45:00,
2013-01-04 15:46:00,37.8,19.4,30.10,WSW,246,4.0,9.0,47,0.00,,---,0.00,VWS V14.01,2013-01-04 20:46:00,
2013-01-04 15:48:00,37.6,19.2,30.10,WSW,239,4.0,11.0,47,0.00,,---,0.00,VWS V14.01,2013-01-04 20:48:00,
2013-01-04 15:50:00,37.6,19.2,30.10,West,271,3.0,10.0,47,0.00,,---,0.00,VWS V14.01,2013-01-04 20:50:00,
2013-01-04 15:51:00,37.6,19.2,30.10,WSW,246,4.0,4.0,47,0.00,,---,0.00,VWS V14.01,2013-01-04 20:51:00,
2013-01-04 15:53:00,37.5,19.1,30.10,SW,214,3.0,8.0,47,0.00,,---,0.00,VWS V14.01,2013-01-04 20:53:00,
2013-01-04 15:55:00,37.3,18.9,30.10,NW,317,5.0,10.0,47,0.00,,---,0.00,VWS V14.01,2013-01-04 20:55:00,
2013-01-04 15:56:00,37.3,18.9,30.10,WNW,291,4.0,11.0,47,0.00,,---,0.00,VWS V14.01,2013-01-04 20:56:00,
2013-01-04 15:58:00,37.0,19.1,30.10,NW,315,3.0,13.0,48,0.00,,---,0.00,VWS V14.01,2013-01-04 20:58:00,
2013-01-04 16:00:00,37.0,18.7,30.10,WSW,240,14.0,14.0,47,0.00,,---,0.00,VWS V14.01,2013-01-04 21:00:00,
2013-01-04 16:02:00,36.9,19.1,30.10,WSW,253,2.0,4.0,48,0.00,,---,0.00,VWS V14.01,2013-01-04 21:02:00,
2013-01-04 16:03:00,36.8,19.0,30.10,NW,311,15.0,24.0,48,0.00,,---,0.00,VWS V14.01,2013-01-04 21:03:00,
2013-01-04 16:05:00,36.6,18.8,30.10,WNW,286,14.0,14.0,48,0.00,,---,0.00,VWS V14.01,2013-01-04 21:05:00,
2013-01-04 16:07:00,36.5,18.7,30.10,NW,321,7.0,7.0,48,0.00,,---,0.00,VWS V14.01,2013-01-04 21:07:00,
2013-01-04 16:08:00,36.5,18.7,30.10,West,260,15.0,15.0,48,0.00,,---,0.00,VWS V14.01,2013-01-04 21:08:00,
2013-01-04 16:10:00,36.3,18.5,30.10,West,277,3.0,10.0,48,0.00,,---,0.00,VWS V14.01,2013-01-04 21:10:00,
2013-01-04 16:11:00,36.2,18.4,30.10,NW,313,3.0,5.0,48,0.00,,---,0.00,VWS V14.01,2013-01-04 21:11:00,
2013-01-04 16:13:00,36.2,18.4,30.10,West,267,5.0,6.0,48,0.00,,---,0.00,VWS V14.01,2013-01-04 21:13:00,
2013-01-04 16:15:00,36.0,18.7,30.10,WNW,284,7.0,11.0,49,0.00,,---,0.00,VWS V14.01,2013-01-04 21:15:00,
2013-01-04 16:16:00,36.0,18.7,30.10,West,279,4.0,7.0,49,0.00,,---,0.00,VWS V14.01,2013-01-04 21:16:00,
2013-01-04 16:18:00,36.0,18.7,30.11,WNW,301,9.0,15.0,49,0.00,,---,0.00,VWS V14.01,2013-01-04 21:18:00,
2013-01-04 16:20:00,35.9,18.6,30.11,SW,215,4.0,8.0,49,0.00,,---,0.00,VWS V14.01,2013-01-04 21:20:00,
2013-01-04 16:21:00,35.9,18.6,30.11,SW,220,3.0,4.0,49,0.00,,---,0.00,VWS V14.01,2013-01-04 21:21:00,
2013-01-04 16:23:00,35.9,18.6,30.11,WSW,256,6.0,7.0,49,0.00,,---,0.00,VWS V14.01,2013-01-04 21:23:00,
2013-01-04 16:24:00,35.9,18.6,30.11,WSW,248,5.0,8.0,49,0.00,,---,0.00,VWS V14.01,2013-01-04 21:24:00,
2013-01-04 16:25:00,35.8,18.5,30.11,West,271,4.0,6.0,49,0.00,,---,0.00,VWS V14.01,2013-01-04 21:25:00,
2013-01-04 16:27:00,35.8,18.5,30.11,SSW,192,6.0,10.0,49,0.00,,---,0.00,VWS V14.01,2013-01-04 21:27:00,
2013-01-04 16:28:00,35.8,19.0,30.11,West,265,2.0,9.0,50,0.00,,---,0.00,VWS V14.01,2013-01-04 21:28:00,
2013-01-04 16:29:00,35.8,19.0,30.11,West,265,5.0,5.0,50,0.00,,---,0.00,VWS V14.01,2013-01-04 21:29:00,
2013-01-04 16:30:00,35.6,18.8,30.11,West,265,0.0,0.0,50,0.00,,---,0.00,VWS V14.01,2013-01-04 21:30:00,
2013-01-04 16:32:00,35.6,18.3,30.12,WNW,290,4.0,4.0,49,0.00,,---,0.00,VWS V14.01,2013-01-04 21:32:00,
2013-01-04 16:33:00,35.5,18.7,30.12,SW,233,2.0,7.0,50,0.00,,---,0.00,VWS V14.01,2013-01-04 21:33:00,
2013-01-04 16:34:00,35.5,18.7,30.12,SW,233,4.0,4.0,50,0.00,,---,0.00,VWS V14.01,2013-01-04 21:34:00,
2013-01-04 16:35:00,35.5,18.7,30.12,West,267,10.0,10.0,50,0.00,,---,0.00,VWS V14.01,2013-01-04 21:35:00,
2013-01-04 16:37:00,35.5,19.2,30.12,NW,306,4.0,8.0,51,0.00,,---,0.00,VWS V14.01,2013-01-04 21:37:00,
2013-01-04 16:38:00,35.3,18.5,30.12,West,262,13.0,13.0,50,0.00,,---,0.00,VWS V14.01,2013-01-04 21:38:00,
2013-01-04 16:39:00,35.3,18.5,30.12,NW,304,6.0,13.0,50,0.00,,---,0.00,VWS V14.01,2013-01-04 21:39:00,
2013-01-04 16:40:00,35.3,18.5,30.12,NW,308,13.0,13.0,50,0.00,,---,0.00,VWS V14.01,2013-01-04 21:40:00,
2013-01-04 16:42:00,35.3,19.0,30.12,NNW,329,10.0,10.0,51,0.00,,---,0.00,VWS V14.01,2013-01-04 21:42:00,
2013-01-04 16:44:00,35.2,18.4,30.12,West,271,9.0,10.0,50,0.00,,---,0.00,VWS V14.01,2013-01-04 21:44:00,
2013-01-04 16:46:00,35.2,18.9,30.12,SW,218,0.0,1.0,51,0.00,,---,0.00,VWS V14.01,2013-01-04 21:46:00,
2013-01-04 16:47:00,35.2,18.9,30.11,WSW,246,3.0,3.0,51,0.00,,---,0.00,VWS V14.01,2013-01-04 21:47:00,